GFSNGP_prec_sndepth_027.txt.gz
Snowfall_Accumulation
0.0 0.0 0.0 0.0 0.0 0.0 0.0 0.0 0.7 0.0 0.0 0.0 0.0 0.0 0.0 0.0 0.0 0.0 0.0 0.0 0.0 0.0 0.0 0.0 0.0 0.0 0.0 0.0 0.0 0.0 0.0 0.0 0.0 0.0 0.0 0.0 0.0 0.0 0.0 0.0 0.0 0.0 0.0 0.0
0.1 0.0 0.0 0.0 0.0 0.0 0.0 0.0 0.0 0.0 0.0 0.0 0.0 0.0 0.0 0.0 0.0 0.0 0.0 0.0 0.0 0.0 0.0 0.0 0.0 0.0 0.0 0.0 0.0 0.0 0.0 0.0 0.0 0.0 0.0 0.0 0.0 0.0 0.0 0.0 0.0 0.0 0.0 0.0
0.9 0.0 0.2 3.2 0.0 0.0 0.0 0.0 0.0 0.1 0.0 0.0 0.0 0.0 0.0 0.0 0.0 0.0 0.0 0.0 0.0 0.0 0.0 0.0 0.0 0.0 0.0 0.0 0.0 0.0 0.0 0.0 0.0 0.0 0.0 0.0 0.0 0.0 0.0 0.0 0.0 0.0 0.0 0.0
3.7 1.8 6.6 0.0 0.0 0.0 0.0 0.0 0.0 0.0 0.0 0.0 0.0 0.0 0.0 0.0 0.0 0.0 0.0 0.0 0.0 0.0 0.0 0.0 0.0 0.0 0.0 0.0 0.0 0.0 0.0 0.0 0.0 0.0 0.0 0.0 0.0 0.0 0.0 0.0 0.0 0.0 0.0 0.0
9.2 1.3 0.0 0.0 0.0 0.0 0.0 0.0 0.0 0.0 0.0 0.0 0.0 0.0 0.0 0.0 0.0 0.0 0.0 0.0 0.0 0.0 0.0 0.0 0.0 0.0 0.0 0.0 0.0 0.0 0.0 0.0 0.0 0.0 0.0 0.0 0.0 0.0 0.0 0.0 0.0 0.0 0.0 0.0
4.4 6.2 8.5 0.0 0.0 0.0 0.0 0.5 0.0 0.0 0.0 0.0 0.0 0.5 0.0 0.0 0.0 0.0 0.0 0.0 0.0 0.0 0.0 0.0 0.0 0.0 0.0 0.0 0.0 0.0 0.0 0.0 0.0 0.0 0.0 0.0 0.0 0.0 0.0 0.0 0.0 0.2 0.0 0.0
4.2 8.6 1.7 0.0 0.0 0.0 2.2 0.2 0.0 0.0 0.0 0.0 0.0 0.1 0.0 0.0 0.0 0.0 0.0 0.0 0.0 0.0 0.0 0.0 0.0 0.0 0.0 0.0 0.0 0.0 0.0 0.0 0.0 0.0 0.0 0.0 0.0 0.0 0.0 0.0 0.0 0.6 1.5 0.3
6.2 10.1 9.1 0.0 0.0 0.9 0.3 0.0 0.0 0.0 0.0 0.0 0.0 0.0 0.0 0.0 0.0 0.0 0.0 0.0 0.0 0.0 0.0 0.0 0.0 0.0 0.0 0.0 0.0 0.0 0.0 0.0 0.0 0.0 0.0 0.0 0.0 0.0 0.0 0.0 0.2 2.8 4.6 2.0
0.2 1.3 0.0 0.0 0.0 0.0 0.0 0.0 0.0 0.0 0.0 0.0 0.0 0.0 0.0 0.0 0.0 0.0 0.0 0.0 0.0 0.0 0.0 0.0 0.0 0.0 0.0 0.0 0.0 0.0 0.0 0.0 0.0 0.0 0.0 0.0 0.0 0.0 0.3 0.0 0.8 2.4 3.6 2.9
0.2 0.0 0.0 0.0 0.0 0.0 0.0 0.0 0.0 0.0 0.0 0.0 0.0 0.0 0.0 0.0 0.0 0.0 0.0 0.0 0.0 0.0 0.0 0.0 0.0 0.0 0.0 0.0 0.0 0.0 0.0 0.0 0.0 0.0 0.0 0.0 0.0 0.1 0.5 0.9 1.6 1.6 3.1 3.7
0.0 0.0 0.0 0.0 0.0 0.0 0.0 0.0 0.0 0.0 0.0 0.0 0.0 0.0 0.0 0.0 0.0 0.0 0.0 0.0 0.0 0.0 0.0 0.0 0.0 0.0 0.0 0.0 0.0 0.0 0.0 0.0 0.0 0.1 0.0 0.1 0.0 0.4 0.9 0.4 2.0 3.7 2.3 3.4
0.7 0.0 0.0 0.0 0.0 0.0 0.0 0.0 0.0 0.0 0.0 0.0 0.0 0.0 0.0 0.0 0.0 0.0 0.0 0.0 0.0 0.0 0.0 0.0 0.0 0.0 0.0 0.0 0.0 0.0 0.0 0.1 0.6 0.9 0.8 0.7 0.8 0.9 nan nan nan nan nan 6.7
0.0 0.0 0.0 0.0 0.0 0.0 0.0 0.0 0.0 0.0 0.0 0.0 0.0 0.0 0.0 0.0 0.0 nan 0.0 0.0 0.0 0.0 0.0 0.0 0.0 0.0 0.0 0.1 0.2 0.7 0.3 0.2 1.1 1.0 1.1 1.1 1.3 1.4 2.3 2.5 nan nan nan nan
0.0 0.0 0.0 0.0 0.0 0.0 0.0 0.0 0.0 0.0 0.0 0.0 0.0 0.0 0.0 0.0 0.0 0.0 0.0 0.0 0.0 0.0 0.0 0.0 0.0 0.0 0.0 0.1 0.3 1.5 0.8 0.2 1.5 1.4 1.4 1.8 2.8 2.9 2.9 4.3 7.9 5.4 nan nan
0.0 0.0 0.0 0.0 0.0 0.0 0.0 0.0 0.0 0.0 0.0 0.0 0.0 0.0 0.0 0.0 0.0 0.0 0.0 0.0 0.0 0.0 0.0 0.0 0.0 0.1 0.1 0.1 0.2 0.2 0.6 1.6 3.4 4.6 4.9 4.0 4.2 4.2 3.9 4.7 5.3 4.3 3.4 4.1
0.0 0.0 0.0 0.0 0.0 0.0 0.0 0.0 0.0 0.0 0.0 0.0 0.0 0.1 0.0 0.0 0.0 0.0 0.0 0.2 0.5 0.5 0.2 5.3 1.9 0.3 0.2 0.1 0.1 0.2 0.4 0.1 1.7 3.3 4.2 4.3 3.5 4.3 3.9 4.6 4.7 5.1 4.8 4.9
0.0 0.0 0.0 0.0 0.0 0.0 0.0 0.0 0.0 0.0 0.0 0.1 0.1 0.3 0.4 0.6 0.6 0.3 0.1 0.6 3.0 3.7 3.0 2.5 1.0 0.1 0.2 0.1 0.2 0.7 0.9 1.3 0.5 2.5 3.0 3.5 4.8 5.4 5.2 6.9 6.8 6.0 11.1 17.3
0.0 0.0 0.0 0.0 0.0 0.0 0.0 0.0 0.0 0.1 0.1 0.1 1.5 5.0 6.0 5.4 1.1 1.4 2.0 2.2 3.6 3.8 1.7 1.5 1.0 0.3 0.4 0.1 0.4 0.8 2.2 2.5 3.6 4.7 4.1 6.5 4.7 4.5 6.9 6.6 6.7 7.3 9.4 8.6
0.0 0.0 0.0 0.0 0.0 0.0 0.0 0.1 0.3 0.2 3.0 2.8 5.8 6.1 4.6 4.9 1.4 1.0 1.5 6.6 7.5 2.3 0.9 1.2 0.0 0.6 0.3 0.3 0.4 2.0 3.8 6.7 4.1 2.7 3.8 7.0 9.8 4.9 8.6 11.2 9.5 12.2 7.8 9.0
0.0 0.0 0.0 0.0 0.0 0.2 0.8 0.4 1.8 0.7 0.3 1.2 5.9 7.1 3.7 5.5 6.3 7.6 4.4 3.1 1.4 1.5 0.8 0.4 0.6 0.8 0.9 0.7 2.1 1.9 4.8 9.3 5.0 8.4 10.8 5.9 14.4 20.3 14.7 7.8 9.2 13.4 23.5 20.3
0.0 0.1 0.3 0.7 0.7 1.9 3.4 3.9 3.1 0.7 0.8 4.8 7.6 8.5 7.6 4.6 5.9 8.5 5.7 2.1 1.0 2.2 0.8 1.2 1.1 1.1 0.5 0.7 0.8 6.3 10.6 13.4 13.6 9.6 9.5 18.0 22.1 17.6 19.5 22.5 20.3 23.2 27.2 22.8
0.0 1.3 3.2 2.2 1.2 0.7 1.2 0.8 0.6 3.3 3.3 6.3 10.7 12.7 9.7 3.1 4.9 5.2 7.3 2.4 1.5 3.2 2.0 2.3 1.4 4.1 3.0 6.0 3.4 12.6 6.8 7.6 10.1 10.5 11.4 16.7 17.6 25.2 26.7 23.3 23.0 25.5 25.1 27.3
0.0 0.1 0.6 1.9 2.2 0.2 0.6 1.5 4.3 4.5 7.5 6.7 8.3 5.3 4.1 2.0 2.0 4.0 4.2 0.6 1.5 4.9 2.2 5.1 5.7 5.9 6.6 14.8 13.7 15.1 14.1 14.4 14.1 12.5 13.2 19.0 17.7 30.6 17.3 17.0 19.7 20.5 27.8 19.6
0.0 0.1 0.1 0.3 1.0 1.1 1.7 0.1 0.3 0.7 5.7 3.4 4.6 6.9 3.2 6.6 9.9 2.3 1.9 6.4 6.6 17.7 16.6 9.7 11.7 6.6 7.2 16.0 14.9 16.6 15.1 16.9 18.1 20.6 9.9 8.9 25.9 19.3 15.2 23.1 14.8 19.8 22.4 18.8
0.5 0.2 0.3 1.7 0.8 0.8 0.2 0.1 0.5 0.8 1.2 1.3 1.3 0.9 1.5 2.3 8.2 4.3 7.4 7.1 7.0 6.3 9.7 7.0 6.7 7.3 19.7 20.0 17.6 17.5 17.5 16.1 18.3 23.3 16.7 22.3 20.1 28.3 23.3 18.2 22.9 23.8 26.7 23.5
0.1 0.6 0.4 0.1 0.4 0.5 0.5 0.9 1.6 1.8 2.4 5.8 4.9 10.7 11.1 5.2 4.8 4.9 6.9 7.2 5.7 6.6 6.4 15.1 22.0 22.7 20.7 14.9 16.6 16.7 12.3 8.8 15.1 14.8 17.8 16.5 16.5 13.5 18.7 15.9 20.8 25.6 34.6 39.1
0.8 0.3 1.1 0.9 0.7 1.0 1.4 1.8 4.1 4.3 4.8 8.7 7.4 11.4 4.6 7.7 10.2 7.0 8.5 13.4 13.2 14.9 15.1 17.5 16.1 11.4 10.2 16.5 13.8 12.7 13.0 12.5 10.7 10.4 18.9 25.4 24.5 32.5 29.9 28.4 29.4 30.3 29.2 27.8

GFSNGP_prec_sndepth_030.txt.gz
Snowfall_Accumulation
0.0 0.0 0.0 0.0 0.0 0.0 0.0 0.0 0.6 0.0 0.0 0.0 0.0 0.0 0.0 0.0 0.0 0.0 0.0 0.0 0.0 0.0 0.0 0.0 0.0 0.0 0.0 0.0 0.0 0.0 0.0 0.0 0.0 0.0 0.0 0.0 0.0 0.0 0.0 0.0 0.0 0.0 0.0 0.0
0.0 0.0 0.0 0.0 0.0 0.0 0.0 0.0 0.0 0.0 0.0 0.0 0.0 0.0 0.0 0.0 0.0 0.0 0.0 0.0 0.0 0.0 0.0 0.0 0.0 0.0 0.0 0.0 0.0 0.0 0.0 0.0 0.0 0.0 0.0 0.0 0.0 0.0 0.0 0.0 0.0 0.0 0.0 0.0
0.4 0.0 0.1 2.6 0.0 0.0 0.0 0.0 0.0 0.1 0.0 0.0 0.0 0.0 0.0 0.0 0.0 0.0 0.0 0.0 0.0 0.0 0.0 0.0 0.0 0.0 0.0 0.0 0.0 0.0 0.0 0.0 0.0 0.0 0.0 0.0 0.0 0.0 0.0 0.0 0.0 0.0 0.0 0.0
3.0 1.4 5.5 0.0 0.0 0.0 0.0 0.0 0.0 0.0 0.0 0.0 0.0 0.0 0.0 0.0 0.0 0.0 0.0 0.0 0.0 0.0 0.0 0.0 0.0 0.0 0.0 0.0 0.0 0.0 0.0 0.0 0.0 0.0 0.0 0.0 0.0 0.0 0.0 0.0 0.0 0.0 0.0 0.0
7.9 1.1 0.0 0.0 0.0 0.0 0.0 0.0 0.0 0.0 0.0 0.0 0.0 0.0 0.0 0.0 0.0 0.0 0.0 0.0 0.0 0.0 0.0 0.0 0.0 0.0 0.0 0.0 0.0 0.0 0.0 0.0 0.0 0.0 0.0 0.0 0.0 0.0 0.0 0.0 0.0 0.0 0.0 0.0
3.6 5.1 7.4 0.0 0.0 0.0 0.0 0.5 0.0 0.0 0.0 0.0 0.0 0.5 0.0 0.0 0.0 0.0 0.0 0.0 0.0 0.0 0.0 0.0 0.0 0.0 0.0 0.0 0.0 0.0 0.0 0.0 0.0 0.0 0.0 0.0 0.0 0.0 0.0 0.0 0.0 0.2 0.0 0.0
3.5 7.5 1.4 0.0 0.0 0.0 1.8 0.1 0.0 0.0 0.0 0.0 0.0 0.0 0.0 0.0 0.0 0.0 0.0 0.0 0.0 0.0 0.0 0.0 0.0 0.0 0.0 0.0 0.0 0.0 0.0 0.0 0.0 0.0 0.0 0.0 0.0 0.0 0.0 0.0 0.0 0.5 1.3 0.2
5.4 8.9 8.0 0.0 0.0 0.7 0.2 0.0 0.0 0.0 0.0 0.0 0.0 0.0 0.0 0.0 0.0 0.0 0.0 0.0 0.0 0.0 0.0 0.0 0.0 0.0 0.0 0.0 0.0 0.0 0.0 0.0 0.0 0.0 0.0 0.0 0.0 0.0 0.0 0.0 0.1 2.5 4.3 1.8
0.2 1.1 0.0 0.0 0.0 0.0 0.0 0.0 0.0 0.0 0.0 0.0 0.0 0.0 0.0 0.0 0.0 0.0 0.0 0.0 0.0 0.0 0.0 0.0 0.0 0.0 0.0 0.0 0.0 0.0 0.0 0.0 0.0 0.0 0.0 0.0 0.0 0.0 0.3 0.0 0.7 2.1 3.5 2.7
0.2 0.0 0.0 0.0 0.0 0.0 0.0 0.0 0.0 0.0 0.0 0.0 0.0 0.0 0.0 0.0 0.0 0.0 0.0 0.0 0.0 0.0 0.0 0.0 0.0 0.0 0.0 0.0 0.0 0.0 0.0 0.0 0.0 0.0 0.0 0.0 0.0 0.1 0.5 0.8 1.5 1.5 2.9 3.6
0.0 0.0 0.0 0.0 0.0 0.0 0.0 0.0 0.0 0.0 0.0 0.0 0.0 0.0 0.0 0.0 0.0 0.0 0.0 0.0 0.0 0.0 0.0 0.0 0.0 0.0 0.0 0.0 0.0 0.0 0.0 0.0 0.0 0.1 0.0 0.1 0.0 0.4 0.8 0.3 1.8 3.5 2.1 3.3
0.6 0.0 0.0 0.0 0.0 0.0 0.0 0.0 0.0 0.0 0.0 0.0 0.0 0.0 0.0 0.0 0.0 0.0 0.0 0.0 0.0 0.0 0.0 0.0 0.0 0.0 0.0 0.0 0.0 0.0 0.0 0.1 0.6 0.8 0.7 0.6 0.7 0.8 nan nan nan nan nan 6.6
0.0 0.0 0.0 0.0 0.0 0.0 0.0 0.0 0.0 0.0 0.0 0.0 0.0 0.0 0.0 0.0 0.0 nan 0.0 0.0 0.0 0.0 0.0 0.0 0.0 0.0 0.0 0.1 0.2 0.5 0.2 0.2 0.9 0.9 1.0 1.0 1.2 1.3 2.3 2.3 nan nan nan nan
0.0 0.0 0.0 0.0 0.0 0.0 0.0 0.0 0.0 0.0 0.0 0.0 0.0 0.0 0.0 0.0 0.0 0.0 0.0 0.0 0.0 0.0 0.0 0.0 0.0 0.0 0.0 0.1 0.3 1.1 0.6 0.1 1.3 1.3 1.3 1.7 2.6 2.9 2.8 4.3 7.9 5.2 nan nan
0.0 0.0 0.0 0.0 0.0 0.0 0.0 0.0 0.0 0.0 0.0 0.0 0.0 0.0 0.0 0.0 0.0 0.0 0.0 0.0 0.0 0.0 0.0 0.0 0.0 0.0 0.1 0.1 0.1 0.2 0.5 1.5 3.0 4.2 4.5 3.8 3.9 4.0 3.7 4.5 5.1 4.1 3.2 3.9
0.0 0.0 0.0 0.0 0.0 0.0 0.0 0.0 0.0 0.0 0.0 0.0 0.0 0.0 0.0 0.0 0.0 0.0 0.0 0.1 0.4 0.4 0.1 4.7 1.7 0.3 0.1 0.1 0.1 0.2 0.4 0.0 1.5 3.1 3.9 4.0 3.4 4.2 3.8 4.6 4.6 5.0 4.6 4.8
0.0 0.0 0.0 0.0 0.0 0.0 0.0 0.0 0.0 0.0 0.0 0.1 0.1 0.2 0.2 0.4 0.4 0.2 0.1 0.4 2.6 3.3 2.6 2.1 0.9 0.1 0.2 0.1 0.1 0.6 0.7 1.2 0.4 2.3 2.8 3.3 4.6 5.4 5.0 6.8 6.8 6.0 11.0 17.2
0.0 0.0 0.0 0.0 0.0 0.0 0.0 0.0 0.0 0.1 0.1 0.0 1.2 4.7 5.8 5.2 0.9 1.2 1.7 1.8 3.2 3.4 1.3 1.3 0.9 0.2 0.3 0.1 0.3 0.7 1.9 2.4 3.4 4.5 4.0 6.4 4.5 4.2 6.8 6.4 6.4 7.0 9.4 8.2
0.0 0.0 0.0 0.0 0.0 0.0 0.0 0.0 0.2 0.2 2.7 2.5 5.3 5.7 4.2 4.5 1.1 0.7 1.1 5.9 6.7 2.0 0.8 0.9 0.0 0.5 0.2 0.2 0.3 1.8 3.4 6.2 3.8 2.5 3.6 6.8 9.3 4.6 8.2 10.7 9.1 11.8 7.6 9.0
0.0 0.0 0.0 0.0 0.0 0.1 0.5 0.3 1.5 0.5 0.2 0.9 5.4 6.6 3.4 5.0 5.6 6.9 3.7 2.7 1.1 1.3 0.6 0.3 0.4 0.7 0.8 0.6 2.1 1.7 4.4 8.6 4.7 7.8 10.0 5.5 13.2 18.8 13.7 7.7 8.8 12.9 23.3 20.2
0.0 0.0 0.2 0.5 0.4 1.5 3.0 3.5 2.8 0.5 0.6 4.4 7.0 7.7 7.0 4.3 5.3 7.5 4.9 1.8 0.7 1.9 0.6 1.0 0.9 0.9 0.5 0.7 0.7 5.7 9.5 12.3 12.7 8.9 8.9 16.8 20.6 16.3 18.3 21.4 19.5 22.5 27.0 22.7
0.0 1.0 2.8 1.9 0.9 0.5 0.9 0.5 0.4 3.0 2.9 5.8 9.8 11.5 9.3 3.0 4.4 4.4 6.3 2.1 1.3 3.0 1.7 2.0 1.3 3.9 2.8 5.8 3.0 11.5 6.2 6.9 9.3 9.8 10.7 15.5 16.4 24.0 25.5 22.2 22.4 24.7 24.6 27.1
0.0 0.1 0.5 1.6 1.8 0.2 0.4 1.2 3.9 3.9 6.6 5.9 7.5 4.8 3.9 1.8 1.8 3.7 4.0 0.5 1.4 4.7 2.0 4.4 5.5 5.6 6.5 13.6 12.4 13.9 13.1 13.3 13.1 11.7 12.3 17.8 16.6 28.6 16.2 16.3 19.0 20.1 27.5 19.5
0.0 0.1 0.1 0.2 0.7 0.8 1.3 0.1 0.2 0.5 5.0 2.8 4.0 6.3 2.7 5.7 8.9 2.0 1.6 6.1 6.3 16.4 15.1 8.6 10.7 6.5 7.0 14.7 13.8 15.5 14.1 15.6 16.8 19.3 9.4 8.9 25.0 18.2 14.2 21.7 14.3 18.8 22.3 18.7
0.3 0.2 0.2 1.4 0.6 0.6 0.1 0.1 0.3 0.5 0.8 1.0 1.1 0.7 1.1 2.0 7.4 3.7 6.4 6.3 6.7 5.7 8.6 6.7 6.5 7.2 17.9 18.4 16.4 16.4 16.3 14.8 16.9 22.3 16.6 22.2 20.0 28.1 22.2 17.2 21.7 22.8 25.9 23.3
0.1 0.5 0.4 0.1 0.3 0.4 0.5 0.8 1.3 1.6 2.1 5.1 4.2 9.5 9.9 4.5 4.2 4.3 6.1 6.6 5.1 6.3 5.7 13.6 19.9 20.5 18.8 13.7 15.3 15.3 11.3 8.2 14.1 14.4 17.7 16.4 16.4 13.5 18.6 15.9 20.4 24.6 33.1 38.4
0.6 0.2 0.9 0.7 0.6 0.8 1.1 1.5 3.7 3.9 4.4 7.9 6.8 10.2 4.1 6.8 9.1 6.4 8.0 12.2 12.0 13.6 13.8 16.0 14.6 10.7 9.1 14.9 12.7 11.6 11.8 11.6 10.3 10.1 18.8 25.2 24.2 32.2 29.7 28.2 29.2 29.7 28.1 27.6

GFSNGP_prec_sndepth_033.txt.gz
Snowfall_Accumulation
0.0 0.0 0.0 0.0 0.0 0.0 0.0 0.0 0.6 0.0 0.0 0.0 0.0 0.0 0.0 0.0 0.0 0.0 0.0 0.0 0.0 0.0 0.0 0.0 0.0 0.0 0.0 0.0 0.0 0.0 0.0 0.0 0.0 0.0 0.0 0.0 0.0 0.0 0.0 0.0 0.0 0.0 0.0 0.0
0.0 0.0 0.0 0.0 0.0 0.0 0.0 0.0 0.0 0.0 0.0 0.0 0.0 0.0 0.0 0.0 0.0 0.0 0.0 0.0 0.0 0.0 0.0 0.0 0.0 0.0 0.0 0.0 0.0 0.0 0.0 0.0 0.0 0.0 0.0 0.0 0.0 0.0 0.0 0.0 0.0 0.0 0.0 0.0
0.4 0.0 0.1 2.5 0.0 0.0 0.0 0.0 0.0 0.1 0.0 0.0 0.0 0.0 0.0 0.0 0.0 0.0 0.0 0.0 0.0 0.0 0.0 0.0 0.0 0.0 0.0 0.0 0.0 0.0 0.0 0.0 0.0 0.0 0.0 0.0 0.0 0.0 0.0 0.0 0.0 0.0 0.0 0.0
3.0 1.3 5.5 0.0 0.0 0.0 0.0 0.0 0.0 0.0 0.0 0.0 0.0 0.0 0.0 0.0 0.0 0.0 0.0 0.0 0.0 0.0 0.0 0.0 0.0 0.0 0.0 0.0 0.0 0.0 0.0 0.0 0.0 0.0 0.0 0.0 0.0 0.0 0.0 0.0 0.0 0.0 0.0 0.0
7.7 1.0 0.0 0.0 0.0 0.0 0.0 0.0 0.0 0.0 0.0 0.0 0.0 0.0 0.0 0.0 0.0 0.0 0.0 0.0 0.0 0.0 0.0 0.0 0.0 0.0 0.0 0.0 0.0 0.0 0.0 0.0 0.0 0.0 0.0 0.0 0.0 0.0 0.0 0.0 0.0 0.0 0.0 0.0
3.6 5.1 7.4 0.0 0.0 0.0 0.0 0.5 0.0 0.0 0.0 0.0 0.0 0.4 0.0 0.0 0.0 0.0 0.0 0.0 0.0 0.0 0.0 0.0 0.0 0.0 0.0 0.0 0.0 0.0 0.0 0.0 0.0 0.0 0.0 0.0 0.0 0.0 0.0 0.0 0.0 0.2 0.0 0.0
3.3 7.4 1.3 0.0 0.0 0.0 1.8 0.1 0.0 0.0 0.0 0.0 0.0 0.0 0.0 0.0 0.0 0.0 0.0 0.0 0.0 0.0 0.0 0.0 0.0 0.0 0.0 0.0 0.0 0.0 0.0 0.0 0.0 0.0 0.0 0.0 0.0 0.0 0.0 0.0 0.0 0.5 1.3 0.2
5.0 8.7 8.0 0.0 0.0 0.7 0.2 0.0 0.0 0.0 0.0 0.0 0.0 0.0 0.0 0.0 0.0 0.0 0.0 0.0 0.0 0.0 0.0 0.0 0.0 0.0 0.0 0.0 0.0 0.0 0.0 0.0 0.0 0.0 0.0 0.0 0.0 0.0 0.0 0.0 0.1 2.5 4.3 1.8
0.2 1.0 0.0 0.0 0.0 0.0 0.0 0.0 0.0 0.0 0.0 0.0 0.0 0.0 0.0 0.0 0.0 0.0 0.0 0.0 0.0 0.0 0.0 0.0 0.0 0.0 0.0 0.0 0.0 0.0 0.0 0.0 0.0 0.0 0.0 0.0 0.0 0.0 0.3 0.0 0.7 2.2 3.5 2.7
0.1 0.0 0.0 0.0 0.0 0.0 0.0 0.0 0.0 0.0 0.0 0.0 0.0 0.0 0.0 0.0 0.0 0.0 0.0 0.0 0.0 0.0 0.0 0.0 0.0 0.0 0.0 0.0 0.0 0.0 0.0 0.0 0.0 0.0 0.0 0.0 0.0 0.1 0.5 0.8 1.5 1.5 2.9 3.6
0.0 0.0 0.0 0.0 0.0 0.0 0.0 0.0 0.0 0.0 0.0 0.0 0.0 0.0 0.0 0.0 0.0 0.0 0.0 0.0 0.0 0.0 0.0 0.0 0.0 0.0 0.0 0.0 0.0 0.0 0.0 0.0 0.0 0.1 0.0 0.1 0.0 0.4 0.8 0.3 1.8 3.5 2.1 3.3
0.5 0.0 0.0 0.0 0.0 0.0 0.0 0.0 0.0 0.0 0.0 0.0 0.0 0.0 0.0 0.0 0.0 0.0 0.0 0.0 0.0 0.0 0.0 0.0 0.0 0.0 0.0 0.0 0.0 0.0 0.0 0.0 0.6 0.8 0.7 0.6 0.7 0.8 nan nan nan nan nan 6.6
0.0 0.0 0.0 0.0 0.0 0.0 0.0 0.0 0.0 0.0 0.0 0.0 0.0 0.0 0.0 0.0 0.0 nan 0.0 0.0 0.0 0.0 0.0 0.0 0.0 0.0 0.0 0.1 0.2 0.5 0.2 0.2 0.9 0.9 1.0 1.0 1.2 1.3 2.3 2.3 nan nan nan nan
0.0 0.0 0.0 0.0 0.0 0.0 0.0 0.0 0.0 0.0 0.0 0.0 0.0 0.0 0.0 0.0 0.0 0.0 0.0 0.0 0.0 0.0 0.0 0.0 0.0 0.0 0.0 0.1 0.3 1.1 0.6 0.1 1.3 1.3 1.3 1.7 2.7 2.9 2.8 4.3 7.9 5.2 nan nan
0.0 0.0 0.0 0.0 0.0 0.0 0.0 0.0 0.0 0.0 0.0 0.0 0.0 0.0 0.0 0.0 0.0 0.0 0.0 0.0 0.0 0.0 0.0 0.0 0.0 0.0 0.1 0.1 0.1 0.2 0.5 1.5 3.0 4.2 4.5 3.8 4.0 4.0 3.7 4.6 5.1 4.1 3.2 3.9
0.0 0.0 0.0 0.0 0.0 0.0 0.0 0.0 0.0 0.0 0.0 0.0 0.0 0.0 0.0 0.0 0.0 0.0 0.0 0.1 0.4 0.4 0.1 4.7 1.7 0.3 0.2 0.1 0.1 0.2 0.4 0.0 1.5 3.1 3.9 4.0 3.4 4.3 3.9 4.6 4.6 5.0 4.6 4.8
0.0 0.0 0.0 0.0 0.0 0.0 0.0 0.0 0.0 0.0 0.0 0.1 0.1 0.2 0.2 0.4 0.4 0.2 0.1 0.4 2.6 3.3 2.6 2.1 0.9 0.1 0.2 0.1 0.1 0.6 0.7 1.2 0.4 2.3 2.8 3.3 4.6 5.4 5.1 6.8 6.8 6.0 11.0 17.2
0.0 0.0 0.0 0.0 0.0 0.0 0.0 0.0 0.0 0.1 0.1 0.0 1.2 4.7 5.8 5.2 0.9 1.2 1.7 1.8 3.2 3.4 1.3 1.2 0.9 0.2 0.3 0.1 0.3 0.7 1.9 2.4 3.4 4.5 4.1 6.4 4.5 4.3 6.8 6.4 6.4 7.1 9.5 8.2
0.0 0.0 0.0 0.0 0.0 0.0 0.0 0.0 0.2 0.2 2.7 2.5 5.4 5.7 4.2 4.5 1.1 0.7 1.1 5.9 6.7 2.0 0.8 0.9 0.0 0.5 0.2 0.2 0.3 1.8 3.5 6.2 3.8 2.5 3.6 6.9 9.4 4.6 8.2 10.7 9.1 11.8 7.6 9.0
0.0 0.0 0.0 0.0 0.0 0.1 0.5 0.3 1.5 0.5 0.2 0.9 5.5 6.6 3.4 5.0 5.6 6.9 3.7 2.7 1.1 1.3 0.6 0.3 0.4 0.7 0.8 0.6 2.1 1.7 4.3 8.6 4.7 7.8 10.0 5.5 13.2 18.8 13.7 7.8 8.8 12.9 23.3 20.1
0.0 0.0 0.2 0.5 0.4 1.6 3.0 3.5 2.8 0.5 0.6 4.4 7.0 7.7 7.0 4.3 5.3 7.5 4.9 1.8 0.7 1.9 0.6 1.0 0.9 1.0 0.5 0.7 0.7 5.7 9.5 12.3 12.7 8.9 8.9 16.8 20.5 16.2 18.3 21.4 19.5 22.4 26.9 22.6
0.0 1.0 2.8 1.9 1.0 0.5 0.9 0.5 0.4 3.0 3.0 5.8 9.8 11.5 9.3 2.9 4.4 4.4 6.3 2.1 1.2 3.0 1.7 2.0 1.3 3.9 2.8 5.8 3.0 11.5 6.2 6.9 9.4 9.8 10.7 15.5 16.4 23.9 25.4 22.1 22.3 24.6 24.5 27.0
0.0 0.1 0.5 1.6 1.8 0.2 0.4 1.2 3.9 4.0 6.6 5.8 7.4 4.8 3.8 1.8 1.8 3.7 4.1 0.5 1.4 4.7 2.0 4.4 5.5 5.6 6.5 13.5 12.4 13.9 13.1 13.3 13.1 11.7 12.3 17.8 16.5 28.5 16.1 16.3 19.0 20.1 27.4 19.4
0.0 0.1 0.1 0.2 0.7 0.8 1.3 0.1 0.2 0.5 4.9 2.8 3.9 5.8 2.7 5.7 8.9 2.0 1.5 6.1 6.3 15.7 14.3 8.4 10.6 6.5 7.1 14.7 13.8 15.5 14.1 15.6 16.8 19.2 9.4 8.9 25.0 18.1 14.2 21.7 14.3 18.9 22.3 18.8
0.3 0.2 0.2 1.4 0.6 0.6 0.1 0.1 0.3 0.5 0.8 1.0 1.1 0.6 1.1 1.9 7.1 3.5 5.9 5.9 6.7 5.6 8.2 6.6 6.5 7.2 18.0 18.4 16.3 16.3 16.3 14.7 16.9 22.2 16.6 22.1 20.0 28.0 22.1 17.2 21.6 22.8 25.8 23.3
0.1 0.5 0.4 0.1 0.3 0.4 0.4 0.8 1.4 1.6 2.1 5.1 4.1 9.3 9.7 4.3 4.0 4.1 5.8 6.5 4.9 6.2 5.3 12.8 18.8 20.1 18.8 13.7 15.3 15.3 11.3 8.2 14.1 14.4 17.6 16.4 16.3 13.5 18.5 15.8 20.3 24.5 32.9 38.1
0.6 0.2 0.8 0.7 0.6 0.8 1.2 1.5 3.6 3.9 4.4 7.9 6.8 10.1 4.0 6.7 8.9 6.4 7.9 11.7 11.3 12.7 12.8 15.0 13.6 10.3 8.7 14.8 12.9 11.7 11.8 11.6 10.3 10.1 18.7 25.1 24.1 31.9 29.5 28.0 29.1 29.6 28.0 27.5

GFSNGP_prec_sndepth_036.txt.gz
Snowfall_Accumulation
0.0 0.0 0.0 0.0 0.0 0.0 0.0 0.0 0.6 0.0 0.0 0.0 0.0 0.0 0.0 0.0 0.0 0.0 0.0 0.0 0.0 0.0 0.0 0.0 0.0 0.0 0.0 0.0 0.0 0.0 0.0 0.0 0.0 0.0 0.0 0.0 0.0 0.0 0.0 0.0 0.0 0.0 0.0 0.0
0.0 0.0 0.0 0.0 0.0 0.0 0.0 0.0 0.0 0.0 0.0 0.0 0.0 0.0 0.0 0.0 0.0 0.0 0.0 0.0 0.0 0.0 0.0 0.0 0.0 0.0 0.0 0.0 0.0 0.0 0.0 0.0 0.0 0.0 0.0 0.0 0.0 0.0 0.0 0.0 0.0 0.0 0.0 0.0
0.4 0.0 0.1 2.6 0.0 0.0 0.0 0.0 0.0 0.1 0.0 0.0 0.0 0.0 0.0 0.0 0.0 0.0 0.0 0.0 0.0 0.0 0.0 0.0 0.0 0.0 0.0 0.0 0.0 0.0 0.0 0.0 0.0 0.0 0.0 0.0 0.0 0.0 0.0 0.0 0.0 0.0 0.0 0.0
3.0 1.3 5.5 0.0 0.0 0.0 0.0 0.0 0.0 0.0 0.0 0.0 0.0 0.0 0.0 0.0 0.0 0.0 0.0 0.0 0.0 0.0 0.0 0.0 0.0 0.0 0.0 0.0 0.0 0.0 0.0 0.0 0.0 0.0 0.0 0.0 0.0 0.0 0.0 0.0 0.0 0.0 0.0 0.0
7.7 1.0 0.0 0.0 0.0 0.0 0.0 0.0 0.0 0.0 0.0 0.0 0.0 0.0 0.0 0.0 0.0 0.0 0.0 0.0 0.0 0.0 0.0 0.0 0.0 0.0 0.0 0.0 0.0 0.0 0.0 0.0 0.0 0.0 0.0 0.0 0.0 0.0 0.0 0.0 0.0 0.0 0.0 0.0
3.6 5.1 7.4 0.0 0.0 0.0 0.0 0.5 0.0 0.0 0.0 0.0 0.0 0.4 0.0 0.0 0.0 0.0 0.0 0.0 0.0 0.0 0.0 0.0 0.0 0.0 0.0 0.0 0.0 0.0 0.0 0.0 0.0 0.0 0.0 0.0 0.0 0.0 0.0 0.0 0.0 0.2 0.0 0.0
3.3 7.4 1.3 0.0 0.0 0.0 1.8 0.1 0.0 0.0 0.0 0.0 0.0 0.0 0.0 0.0 0.0 0.0 0.0 0.0 0.0 0.0 0.0 0.0 0.0 0.0 0.0 0.0 0.0 0.0 0.0 0.0 0.0 0.0 0.0 0.0 0.0 0.0 0.0 0.0 0.0 0.5 1.3 0.2
5.0 8.7 8.0 0.0 0.0 0.7 0.2 0.0 0.0 0.0 0.0 0.0 0.0 0.0 0.0 0.0 0.0 0.0 0.0 0.0 0.0 0.0 0.0 0.0 0.0 0.0 0.0 0.0 0.0 0.0 0.0 0.0 0.0 0.0 0.0 0.0 0.0 0.0 0.0 0.0 0.1 2.5 4.3 1.8
0.2 1.0 0.0 0.0 0.0 0.0 0.0 0.0 0.0 0.0 0.0 0.0 0.0 0.0 0.0 0.0 0.0 0.0 0.0 0.0 0.0 0.0 0.0 0.0 0.0 0.0 0.0 0.0 0.0 0.0 0.0 0.0 0.0 0.0 0.0 0.0 0.0 0.0 0.3 0.0 0.7 2.2 3.5 2.7
0.1 0.0 0.0 0.0 0.0 0.0 0.0 0.0 0.0 0.0 0.0 0.0 0.0 0.0 0.0 0.0 0.0 0.0 0.0 0.0 0.0 0.0 0.0 0.0 0.0 0.0 0.0 0.0 0.0 0.0 0.0 0.0 0.0 0.0 0.0 0.0 0.0 0.1 0.5 0.8 1.5 1.5 2.9 3.6
0.0 0.0 0.0 0.0 0.0 0.0 0.0 0.0 0.0 0.0 0.0 0.0 0.0 0.0 0.0 0.0 0.0 0.0 0.0 0.0 0.0 0.0 0.0 0.0 0.0 0.0 0.0 0.0 0.0 0.0 0.0 0.0 0.0 0.1 0.1 0.1 0.0 0.4 0.8 0.3 1.8 3.5 2.1 3.3
0.5 0.0 0.0 0.0 0.0 0.0 0.0 0.0 0.0 0.0 0.0 0.0 0.0 0.0 0.0 0.0 0.0 0.0 0.0 0.0 0.0 0.0 0.0 0.0 0.0 0.0 0.0 0.0 0.0 0.0 0.1 0.1 0.6 0.8 0.7 0.6 0.7 0.8 nan nan nan nan nan 6.6
0.0 0.0 0.0 0.0 0.0 0.0 0.0 0.0 0.0 0.0 0.0 0.0 0.0 0.0 0.0 0.0 0.0 nan 0.0 0.0 0.0 0.0 0.0 0.0 0.0 0.0 0.0 0.1 0.2 0.5 0.3 0.3 0.9 0.9 1.0 1.0 1.2 1.3 2.3 2.3 nan nan nan nan
0.0 0.0 0.0 0.0 0.0 0.0 0.0 0.0 0.0 0.0 0.0 0.0 0.0 0.0 0.0 0.0 0.0 0.0 0.0 0.0 0.0 0.0 0.0 0.0 0.0 0.0 0.0 0.1 0.2 1.1 0.6 0.1 1.3 1.3 1.3 1.7 2.7 2.9 2.8 4.3 7.9 5.2 nan nan
0.0 0.0 0.0 0.0 0.0 0.0 0.0 0.0 0.0 0.0 0.0 0.0 0.0 0.0 0.0 0.0 0.0 0.0 0.0 0.0 0.0 0.0 0.0 0.0 0.0 0.0 0.1 0.1 0.1 0.2 0.5 1.5 3.0 4.2 4.5 3.8 4.0 4.0 3.7 4.6 5.1 4.2 3.2 3.9
0.0 0.0 0.0 0.0 0.0 0.0 0.0 0.0 0.0 0.0 0.0 0.0 0.0 0.0 0.0 0.0 0.0 0.0 0.0 0.1 0.4 0.4 0.1 4.7 1.7 0.2 0.1 0.1 0.1 0.2 0.4 0.0 1.5 3.1 3.9 4.1 3.4 4.3 3.9 4.6 4.6 5.0 4.6 4.8
0.0 0.0 0.0 0.0 0.0 0.0 0.0 0.0 0.0 0.0 0.0 0.1 0.1 0.2 0.2 0.4 0.4 0.2 0.1 0.4 2.6 3.3 2.6 2.1 0.9 0.1 0.1 0.1 0.1 0.6 0.7 1.1 0.4 2.3 2.8 3.3 4.6 5.4 5.1 6.9 6.8 6.0 11.0 17.2
0.0 0.0 0.0 0.0 0.0 0.0 0.0 0.0 0.0 0.1 0.1 0.0 1.2 4.7 5.8 5.2 1.0 1.2 1.7 1.8 3.2 3.4 1.3 1.2 0.9 0.2 0.3 0.1 0.3 0.7 1.9 2.4 3.4 4.5 4.1 6.4 4.5 4.3 6.8 6.4 6.4 7.1 9.5 8.2
0.0 0.0 0.0 0.0 0.0 0.0 0.0 0.0 0.2 0.2 2.7 2.6 5.4 5.7 4.2 4.5 1.1 0.7 1.1 5.9 6.7 2.0 0.8 1.0 0.0 0.5 0.2 0.2 0.3 1.8 3.5 6.2 3.8 2.5 3.6 6.9 9.4 4.6 8.3 10.7 9.2 11.9 7.6 9.0
0.0 0.0 0.0 0.0 0.0 0.1 0.5 0.3 1.5 0.5 0.2 0.9 5.5 6.6 3.4 5.0 5.6 6.8 3.7 2.6 1.1 1.3 0.6 0.4 0.4 0.7 0.8 0.6 2.1 1.7 4.4 8.6 4.7 7.8 10.0 5.5 13.2 18.7 13.7 7.8 8.8 12.9 23.2 20.0
0.0 0.0 0.2 0.5 0.4 1.6 3.0 3.5 2.8 0.5 0.6 4.4 7.0 7.7 7.0 4.3 5.3 7.5 4.9 1.8 0.7 1.9 0.6 1.0 0.9 1.0 0.5 0.6 0.7 5.7 9.5 12.3 12.7 9.0 8.9 16.7 20.5 16.2 18.3 21.3 19.4 22.4 26.7 22.5
0.0 1.0 2.8 1.9 1.0 0.5 0.9 0.5 0.4 3.0 3.0 5.8 9.8 11.5 9.3 3.0 4.4 4.4 6.3 2.1 1.2 3.0 1.7 2.0 1.3 3.9 2.8 5.9 3.0 11.4 6.2 6.9 9.4 9.8 10.7 15.5 16.4 23.8 25.3 22.1 22.3 24.5 24.4 26.9
0.0 0.1 0.5 1.6 1.8 0.2 0.4 1.2 3.9 4.0 6.6 5.8 7.4 4.8 3.9 1.8 1.8 3.8 4.1 0.5 1.4 4.6 2.0 4.3 5.5 5.6 6.5 13.7 12.5 13.9 13.1 13.3 13.1 11.7 12.3 17.8 16.5 28.4 16.1 16.3 18.9 20.1 27.3 19.4
0.0 0.1 0.1 0.2 0.7 0.8 1.3 0.1 0.2 0.5 4.9 2.8 3.9 5.7 2.8 5.7 8.9 2.0 1.5 6.1 6.3 15.4 13.9 8.2 10.4 6.5 7.1 14.8 13.8 15.5 14.1 15.6 16.7 19.2 9.4 8.9 24.9 18.1 14.2 21.6 14.2 18.8 22.2 18.7
0.3 0.2 0.2 1.4 0.6 0.6 0.1 0.1 0.3 0.5 0.8 1.0 1.1 0.6 1.1 1.9 7.1 3.5 5.9 5.8 6.7 5.6 8.1 6.5 6.5 7.2 17.7 18.5 16.4 16.4 16.3 14.7 16.9 22.2 16.6 22.1 19.9 27.9 22.1 17.1 21.6 22.7 25.7 23.2
0.1 0.5 0.4 0.1 0.3 0.4 0.4 0.8 1.4 1.6 2.1 5.1 4.2 9.3 9.7 4.3 4.0 4.1 5.8 6.5 4.9 6.2 5.2 12.3 17.9 18.8 18.4 13.6 15.3 15.4 11.4 8.3 14.2 14.6 17.8 16.5 16.4 13.5 18.5 15.8 20.2 24.4 32.7 37.8
0.6 0.2 0.8 0.7 0.6 0.8 1.2 1.5 3.6 3.9 4.4 7.9 6.8 10.1 4.0 6.7 9.0 6.4 8.0 11.8 11.3 12.6 12.7 14.6 13.1 10.1 8.4 14.3 12.5 11.6 11.8 11.7 10.4 10.4 19.0 25.2 24.2 31.8 29.4 27.9 28.9 29.5 27.9 27.4

GFSNGP_prec_sndepth_039.txt.gz
Snowfall_Accumulation
0.0 0.0 0.0 0.0 0.0 0.0 0.0 0.0 0.6 0.0 0.0 0.0 0.0 0.0 0.0 0.0 0.0 0.0 0.0 0.0 0.0 0.0 0.0 0.0 0.0 0.0 0.0 0.0 0.0 0.0 0.0 0.0 0.0 0.0 0.0 0.0 0.0 0.0 0.0 0.0 0.0 0.0 0.0 0.0
0.0 0.0 0.0 0.0 0.0 0.0 0.0 0.0 0.0 0.0 0.0 0.0 0.0 0.0 0.0 0.0 0.0 0.0 0.0 0.0 0.0 0.0 0.0 0.0 0.0 0.0 0.0 0.0 0.0 0.0 0.0 0.0 0.0 0.0 0.0 0.0 0.0 0.0 0.0 0.0 0.0 0.0 0.0 0.0
0.4 0.0 0.1 2.6 0.0 0.0 0.0 0.0 0.0 0.1 0.0 0.0 0.0 0.0 0.0 0.0 0.0 0.0 0.0 0.0 0.0 0.0 0.0 0.0 0.0 0.0 0.0 0.0 0.0 0.0 0.0 0.0 0.0 0.0 0.0 0.0 0.0 0.0 0.0 0.0 0.0 0.0 0.0 0.0
3.0 1.3 5.5 0.0 0.0 0.0 0.0 0.0 0.0 0.0 0.0 0.0 0.0 0.0 0.0 0.0 0.0 0.0 0.0 0.0 0.0 0.0 0.0 0.0 0.0 0.0 0.0 0.0 0.0 0.0 0.0 0.0 0.0 0.0 0.0 0.0 0.0 0.0 0.0 0.0 0.0 0.0 0.0 0.0
7.7 1.0 0.0 0.0 0.0 0.0 0.0 0.0 0.0 0.0 0.0 0.0 0.0 0.0 0.0 0.0 0.0 0.0 0.0 0.0 0.0 0.0 0.0 0.0 0.0 0.0 0.0 0.0 0.0 0.0 0.0 0.0 0.0 0.0 0.0 0.0 0.0 0.0 0.0 0.0 0.0 0.0 0.0 0.0
3.6 5.1 7.4 0.0 0.0 0.0 0.0 0.5 0.0 0.0 0.0 0.0 0.0 0.5 0.0 0.0 0.0 0.0 0.0 0.0 0.0 0.0 0.0 0.0 0.0 0.0 0.0 0.0 0.0 0.0 0.0 0.0 0.0 0.0 0.0 0.0 0.0 0.0 0.0 0.0 0.0 0.2 0.0 0.0
3.3 7.4 1.3 0.0 0.0 0.0 1.8 0.1 0.0 0.0 0.0 0.0 0.0 0.0 0.0 0.0 0.0 0.0 0.0 0.0 0.0 0.0 0.0 0.0 0.0 0.0 0.0 0.0 0.0 0.0 0.0 0.0 0.0 0.0 0.0 0.0 0.0 0.0 0.0 0.0 0.0 0.5 1.3 0.2
5.0 8.7 8.0 0.0 0.0 0.7 0.2 0.0 0.0 0.0 0.0 0.0 0.0 0.0 0.0 0.0 0.0 0.0 0.0 0.0 0.0 0.0 0.0 0.0 0.0 0.0 0.0 0.0 0.0 0.0 0.0 0.0 0.0 0.0 0.0 0.0 0.0 0.0 0.0 0.0 0.1 2.5 4.3 1.8
0.2 1.0 0.0 0.0 0.0 0.0 0.0 0.0 0.0 0.0 0.0 0.0 0.0 0.0 0.0 0.0 0.0 0.0 0.0 0.0 0.0 0.0 0.0 0.0 0.0 0.0 0.0 0.0 0.0 0.0 0.0 0.0 0.0 0.0 0.0 0.0 0.0 0.0 0.3 0.0 0.7 2.2 3.5 2.7
0.2 0.0 0.0 0.0 0.0 0.0 0.0 0.0 0.0 0.0 0.0 0.0 0.0 0.0 0.0 0.0 0.0 0.0 0.0 0.0 0.0 0.0 0.0 0.0 0.0 0.0 0.0 0.0 0.0 0.0 0.0 0.0 0.0 0.0 0.0 0.0 0.0 0.1 0.5 0.8 1.5 1.5 2.9 3.6
0.0 0.0 0.0 0.0 0.0 0.0 0.0 0.0 0.0 0.0 0.0 0.0 0.0 0.0 0.0 0.0 0.0 0.0 0.0 0.0 0.0 0.0 0.0 0.0 0.0 0.0 0.0 0.0 0.0 0.0 0.0 0.0 0.0 0.1 0.2 0.2 0.0 0.4 0.8 0.3 1.8 3.5 2.1 3.3
0.5 0.0 0.0 0.0 0.0 0.0 0.0 0.0 0.0 0.0 0.0 0.0 0.0 0.0 0.0 0.0 0.0 0.0 0.0 0.0 0.0 0.0 0.0 0.0 0.0 0.0 0.0 0.0 0.0 0.0 0.1 0.2 0.7 0.9 0.8 0.6 0.7 0.8 nan nan nan nan nan 6.6
0.0 0.0 0.0 0.0 0.0 0.0 0.0 0.0 0.0 0.0 0.0 0.0 0.0 0.0 0.0 0.0 0.0 nan 0.0 0.0 0.0 0.0 0.0 0.0 0.0 0.0 0.0 0.0 0.2 0.5 0.3 0.6 0.9 1.0 1.0 1.0 1.2 1.3 2.3 2.3 nan nan nan nan
0.0 0.0 0.0 0.0 0.0 0.0 0.0 0.0 0.0 0.0 0.0 0.0 0.0 0.0 0.0 0.0 0.0 0.0 0.0 0.0 0.0 0.0 0.0 0.0 0.0 0.0 0.0 0.0 0.2 1.1 0.6 0.2 1.4 1.3 1.3 1.7 2.7 2.9 2.8 4.3 7.9 5.2 nan nan
0.0 0.0 0.0 0.0 0.0 0.0 0.0 0.0 0.0 0.0 0.0 0.0 0.0 0.0 0.0 0.0 0.0 0.0 0.0 0.0 0.0 0.0 0.0 0.0 0.0 0.0 0.1 0.1 0.1 0.2 0.5 1.5 3.0 4.3 4.5 3.8 4.0 4.0 3.7 4.6 5.1 4.2 3.3 3.9
0.0 0.0 0.0 0.0 0.0 0.0 0.0 0.0 0.0 0.0 0.0 0.0 0.0 0.0 0.0 0.0 0.0 0.0 0.0 0.1 0.4 0.4 0.1 4.7 1.7 0.2 0.1 0.1 0.1 0.2 0.4 0.0 1.5 3.1 3.9 4.1 3.4 4.3 3.9 4.7 4.6 5.1 4.6 4.8
0.0 0.0 0.0 0.0 0.0 0.0 0.0 0.0 0.0 0.0 0.0 0.1 0.1 0.2 0.2 0.4 0.4 0.2 0.1 0.4 2.6 3.3 2.6 2.1 0.9 0.1 0.1 0.1 0.1 0.6 0.7 1.1 0.4 2.3 2.8 3.3 4.6 5.4 5.1 6.9 6.8 6.1 11.0 17.1
0.0 0.0 0.0 0.0 0.0 0.0 0.0 0.0 0.0 0.1 0.1 0.0 1.2 4.7 5.8 5.2 1.0 1.2 1.7 1.8 3.2 3.4 1.3 1.2 0.9 0.2 0.3 0.1 0.3 0.7 1.9 2.4 3.4 4.5 4.1 6.4 4.5 4.3 6.8 6.4 6.4 7.1 9.5 8.2
0.0 0.0 0.0 0.0 0.0 0.0 0.0 0.0 0.2 0.2 2.8 2.6 5.4 5.7 4.2 4.5 1.1 0.7 1.1 5.8 6.7 2.0 0.8 1.0 0.0 0.5 0.2 0.2 0.3 1.8 3.5 6.2 3.8 2.5 3.6 6.9 9.4 4.7 8.3 10.7 9.2 11.9 7.6 9.0
0.0 0.0 0.0 0.0 0.0 0.1 0.5 0.3 1.5 0.5 0.2 0.9 5.5 6.6 3.4 5.0 5.6 6.8 3.7 2.6 1.1 1.3 0.6 0.3 0.4 0.7 0.8 0.6 2.1 1.7 4.3 8.6 4.7 7.8 10.0 5.5 13.2 18.7 13.6 7.8 8.8 12.9 23.1 20.0
0.0 0.0 0.2 0.5 0.4 1.6 3.0 3.5 2.8 0.5 0.6 4.4 7.0 7.7 7.0 4.3 5.3 7.5 4.9 1.8 0.7 1.9 0.6 1.0 0.9 1.0 0.5 0.7 0.7 5.7 9.6 12.3 12.7 8.9 8.9 16.7 20.5 16.2 18.2 21.2 19.4 22.3 26.6 22.5
0.0 1.0 2.8 1.9 1.0 0.5 0.9 0.5 0.4 3.0 3.0 5.8 9.8 11.5 9.2 2.9 4.4 4.4 6.3 2.1 1.2 3.0 1.7 2.0 1.3 3.9 2.8 5.9 3.1 11.5 6.2 7.0 9.4 9.8 10.8 15.5 16.4 23.8 25.2 22.0 22.2 24.4 24.3 26.8
0.0 0.1 0.5 1.6 1.8 0.2 0.4 1.2 3.9 4.0 6.6 5.8 7.5 4.8 3.9 1.8 1.8 3.8 4.1 0.5 1.4 4.6 2.0 4.3 5.5 5.6 6.5 13.7 12.5 14.0 13.2 13.4 13.2 11.7 12.3 17.8 16.5 28.3 16.1 16.2 18.9 20.0 27.2 19.4
0.0 0.1 0.1 0.2 0.7 0.8 1.3 0.1 0.2 0.5 4.9 2.8 3.9 5.7 2.8 5.7 8.9 2.0 1.5 6.1 6.3 15.4 13.9 8.2 10.4 6.5 7.1 14.8 13.9 15.5 14.2 15.7 16.8 19.2 9.5 8.9 25.0 18.2 14.2 21.6 14.2 18.8 22.2 18.7
0.3 0.2 0.2 1.4 0.6 0.6 0.1 0.1 0.3 0.5 0.8 1.0 1.1 0.6 1.1 1.9 7.2 3.5 5.9 5.8 6.7 5.6 8.1 6.5 6.5 7.2 17.6 18.5 16.4 16.5 16.4 14.8 16.9 22.3 16.9 22.3 20.2 28.0 22.1 17.2 21.6 22.6 25.6 23.1
0.1 0.5 0.4 0.1 0.3 0.4 0.4 0.8 1.4 1.6 2.1 5.1 4.2 9.3 9.7 4.3 4.0 4.1 5.9 6.5 4.9 6.2 5.2 12.3 17.8 18.7 18.4 13.6 15.3 15.4 11.4 8.4 14.3 14.6 17.9 16.8 16.7 13.8 18.7 16.0 20.3 24.4 32.6 37.6
0.6 0.2 0.8 0.7 0.6 0.8 1.2 1.5 3.7 3.9 4.4 8.0 7.0 10.2 4.0 6.7 9.0 6.5 8.0 11.8 11.3 12.6 12.7 14.6 13.1 10.1 8.4 14.2 12.5 11.6 11.8 11.7 10.5 10.4 19.0 25.3 24.3 32.0 29.6 28.1 29.0 29.5 27.9 27.4

GFSNGP_prec_sndepth_042.txt.gz
Snowfall_Accumulation
0.0 0.0 0.0 0.0 0.0 0.0 0.0 0.0 0.5 0.0 0.0 0.0 0.0 0.0 0.0 0.0 0.0 0.0 0.0 0.0 0.0 0.0 0.0 0.0 0.0 0.0 0.0 0.0 0.0 0.0 0.0 0.0 0.0 0.0 0.0 0.0 0.0 0.0 0.0 0.0 0.0 0.0 0.0 0.0
0.0 0.0 0.0 0.0 0.0 0.0 0.0 0.0 0.0 0.0 0.0 0.0 0.0 0.0 0.0 0.0 0.0 0.0 0.0 0.0 0.0 0.0 0.0 0.0 0.0 0.0 0.0 0.0 0.0 0.0 0.0 0.0 0.0 0.0 0.0 0.0 0.0 0.0 0.0 0.0 0.0 0.0 0.0 0.1
0.4 0.0 0.1 2.6 0.0 0.0 0.0 0.0 0.0 0.1 0.0 0.0 0.0 0.0 0.0 0.0 0.0 0.0 0.0 0.0 0.0 0.0 0.0 0.0 0.0 0.0 0.0 0.0 0.0 0.0 0.0 0.0 0.0 0.0 0.0 0.0 0.0 0.0 0.0 0.0 0.0 0.0 0.0 0.0
3.0 1.3 5.5 0.0 0.0 0.0 0.0 0.0 0.0 0.0 0.0 0.0 0.0 0.0 0.0 0.0 0.0 0.0 0.0 0.0 0.0 0.0 0.0 0.0 0.0 0.0 0.0 0.0 0.0 0.0 0.0 0.0 0.0 0.0 0.0 0.0 0.0 0.0 0.0 0.0 0.0 0.0 0.0 0.0
7.7 1.0 0.0 0.0 0.0 0.0 0.0 0.0 0.0 0.0 0.0 0.0 0.0 0.0 0.0 0.0 0.0 0.0 0.0 0.0 0.0 0.0 0.0 0.0 0.0 0.0 0.0 0.0 0.0 0.0 0.0 0.0 0.0 0.0 0.0 0.0 0.0 0.0 0.0 0.0 0.0 0.0 0.0 0.0
3.6 5.1 7.4 0.0 0.0 0.0 0.0 0.5 0.0 0.0 0.0 0.0 0.0 0.5 0.0 0.0 0.0 0.0 0.0 0.0 0.0 0.0 0.0 0.0 0.0 0.0 0.0 0.0 0.0 0.0 0.0 0.0 0.0 0.0 0.0 0.0 0.0 0.0 0.0 0.0 0.0 0.2 0.0 0.0
3.4 7.4 1.3 0.0 0.0 0.0 1.8 0.1 0.0 0.0 0.0 0.0 0.0 0.0 0.0 0.0 0.0 0.0 0.0 0.0 0.0 0.0 0.0 0.0 0.0 0.0 0.0 0.0 0.0 0.0 0.0 0.0 0.0 0.0 0.0 0.0 0.0 0.0 0.0 0.0 0.1 0.5 1.3 0.2
5.0 8.7 8.0 0.0 0.0 0.7 0.2 0.0 0.0 0.0 0.0 0.0 0.0 0.0 0.0 0.0 0.0 0.0 0.0 0.0 0.0 0.0 0.0 0.0 0.0 0.0 0.0 0.0 0.0 0.0 0.0 0.0 0.0 0.0 0.0 0.0 0.0 0.0 0.0 0.1 0.1 2.5 4.3 1.8
0.2 1.0 0.0 0.0 0.0 0.0 0.0 0.0 0.0 0.0 0.0 0.0 0.0 0.0 0.0 0.0 0.0 0.0 0.0 0.0 0.0 0.0 0.0 0.0 0.0 0.0 0.0 0.0 0.0 0.0 0.0 0.0 0.0 0.0 0.0 0.0 0.0 0.0 0.3 0.0 0.7 2.2 3.5 2.8
0.2 0.0 0.0 0.0 0.0 0.0 0.0 0.0 0.0 0.0 0.0 0.0 0.0 0.0 0.0 0.0 0.0 0.0 0.0 0.0 0.0 0.0 0.0 0.0 0.0 0.0 0.0 0.0 0.0 0.0 0.0 0.0 0.0 0.0 0.0 0.0 0.1 0.1 0.5 0.8 1.5 1.5 2.9 3.6
0.0 0.0 0.0 0.0 0.0 0.0 0.0 0.0 0.0 0.0 0.0 0.0 0.0 0.0 0.0 0.0 0.0 0.0 0.0 0.0 0.0 0.0 0.0 0.0 0.0 0.0 0.0 0.0 0.0 0.0 0.0 0.0 0.1 0.1 0.3 0.3 0.0 0.4 0.8 0.3 1.8 3.5 2.1 3.3
0.5 0.0 0.0 0.0 0.0 0.0 0.0 0.0 0.0 0.0 0.0 0.0 0.0 0.0 0.0 0.0 0.0 0.0 0.0 0.0 0.0 0.0 0.0 0.0 0.0 0.0 0.0 0.0 0.0 0.0 0.1 0.2 0.8 0.9 0.9 0.7 0.7 0.8 nan nan nan nan nan 6.6
0.0 0.0 0.0 0.0 0.0 0.0 0.0 0.0 0.0 0.0 0.0 0.0 0.0 0.0 0.0 0.0 0.0 nan 0.0 0.0 0.0 0.0 0.0 0.0 0.0 0.0 0.0 0.0 0.2 0.5 0.3 0.6 1.0 1.0 1.0 1.0 1.2 1.3 2.3 2.3 nan nan nan nan
0.0 0.0 0.0 0.0 0.0 0.0 0.0 0.0 0.0 0.0 0.0 0.0 0.0 0.0 0.0 0.0 0.0 0.0 0.0 0.0 0.0 0.0 0.0 0.0 0.0 0.0 0.0 0.0 0.2 1.2 0.7 0.2 1.4 1.3 1.3 1.7 2.7 2.9 2.9 4.3 7.9 5.2 nan nan
0.0 0.0 0.0 0.0 0.0 0.0 0.0 0.0 0.0 0.0 0.0 0.0 0.0 0.0 0.0 0.0 0.0 0.0 0.0 0.0 0.0 0.0 0.0 0.0 0.0 0.0 0.1 0.1 0.1 0.2 0.5 1.5 3.0 4.3 4.6 3.8 4.0 4.0 3.7 4.6 5.1 4.2 3.3 3.9
0.0 0.0 0.0 0.0 0.0 0.0 0.0 0.0 0.0 0.0 0.0 0.0 0.0 0.0 0.0 0.0 0.0 0.0 0.0 0.1 0.4 0.4 0.1 4.7 1.7 0.2 0.1 0.1 0.1 0.2 0.4 0.0 1.5 3.1 3.9 4.1 3.4 4.3 3.9 4.7 4.6 5.1 4.6 4.9
0.0 0.0 0.0 0.0 0.0 0.0 0.0 0.0 0.0 0.0 0.0 0.1 0.1 0.2 0.2 0.4 0.4 0.2 0.1 0.4 2.6 3.3 2.6 2.1 0.9 0.1 0.1 0.1 0.1 0.6 0.7 1.1 0.4 2.3 2.8 3.3 4.6 5.4 5.1 6.9 6.8 6.1 11.0 17.1
0.0 0.0 0.0 0.0 0.0 0.0 0.0 0.0 0.0 0.1 0.1 0.0 1.2 4.7 5.8 5.2 1.0 1.2 1.7 1.8 3.2 3.4 1.3 1.2 0.9 0.2 0.3 0.1 0.3 0.7 2.0 2.4 3.4 4.5 4.1 6.5 4.5 4.3 6.8 6.4 6.5 7.1 9.5 8.2
0.0 0.0 0.0 0.0 0.0 0.0 0.0 0.0 0.2 0.2 2.8 2.6 5.4 5.7 4.2 4.6 1.1 0.7 1.1 5.9 6.7 2.0 0.8 1.0 0.0 0.5 0.2 0.2 0.3 1.9 3.5 6.3 3.8 2.5 3.6 6.9 9.4 4.7 8.3 10.7 9.2 11.9 7.6 9.0
0.0 0.0 0.0 0.0 0.0 0.1 0.5 0.3 1.5 0.5 0.2 0.9 5.5 6.6 3.4 5.0 5.6 6.8 3.7 2.6 1.1 1.3 0.6 0.4 0.4 0.7 0.8 0.6 2.1 1.8 4.5 8.7 4.8 7.9 10.0 5.5 13.2 18.6 13.6 7.8 8.8 12.9 23.0 19.9
0.0 0.0 0.2 0.5 0.4 1.6 3.0 3.5 2.8 0.5 0.6 4.4 7.0 7.7 7.0 4.3 5.3 7.5 4.9 1.9 0.7 1.9 0.6 1.0 0.9 1.0 0.5 0.7 0.7 5.8 9.7 12.5 12.9 9.1 9.0 16.8 20.4 16.2 18.2 21.2 19.3 22.2 26.5 22.4
0.0 1.0 2.8 1.9 1.0 0.5 0.9 0.5 0.4 3.0 3.0 5.8 9.8 11.5 9.2 3.0 4.4 4.4 6.3 2.1 1.2 3.0 1.8 2.0 1.3 3.9 2.8 6.0 3.3 11.6 6.3 7.1 9.5 10.0 11.0 15.6 16.6 23.9 25.2 22.0 22.2 24.4 24.2 26.7
0.0 0.1 0.5 1.6 1.8 0.2 0.4 1.2 3.9 4.0 6.6 5.8 7.5 4.8 3.9 1.8 1.8 3.8 4.1 0.5 1.4 4.6 2.0 4.3 5.5 5.7 6.5 13.7 12.5 14.0 13.3 13.5 13.3 11.8 12.4 17.9 16.8 28.4 16.3 16.3 18.9 20.0 27.1 19.3
0.0 0.1 0.1 0.2 0.7 0.8 1.3 0.1 0.2 0.5 4.9 2.8 3.9 5.7 2.8 5.7 8.9 2.0 1.5 6.1 6.3 15.4 13.9 8.2 10.4 6.5 7.1 14.8 13.9 15.6 14.2 15.8 16.9 19.3 9.6 9.0 25.1 18.4 14.5 21.7 14.4 18.8 22.2 18.6
0.3 0.2 0.2 1.4 0.6 0.6 0.1 0.1 0.3 0.5 0.8 1.0 1.1 0.6 1.1 1.9 7.2 3.6 6.0 5.8 6.7 5.6 8.1 6.5 6.5 7.2 17.6 18.4 16.4 16.4 16.3 14.8 16.9 22.3 16.9 22.4 20.2 28.0 22.3 17.4 21.8 22.8 25.7 23.2
0.1 0.5 0.4 0.1 0.3 0.4 0.4 0.8 1.4 1.6 2.1 5.1 4.2 9.3 9.7 4.7 4.3 4.3 6.0 6.5 4.9 6.2 5.3 12.3 17.8 18.7 18.4 13.6 15.3 15.4 11.4 8.4 14.3 14.6 17.9 16.8 16.7 13.9 18.8 16.2 20.6 24.6 32.7 37.5
0.6 0.2 0.8 0.7 0.6 0.8 1.2 1.5 3.6 3.9 4.4 8.0 7.0 10.2 4.1 6.8 9.1 6.6 8.0 12.0 11.5 12.7 12.7 14.6 13.2 10.1 8.4 14.2 12.5 11.6 11.9 11.8 10.5 10.5 19.1 25.3 24.5 32.1 29.9 28.4 29.5 30.1 28.5 27.7

GFSNGP_prec_sndepth_045.txt.gz
Snowfall_Accumulation
0.0 0.0 0.0 0.0 0.0 0.0 0.0 0.0 0.5 0.0 0.0 0.0 0.0 0.0 0.0 0.0 0.0 0.0 0.0 0.0 0.0 0.0 0.0 0.0 0.0 0.0 0.0 0.0 0.0 0.0 0.0 0.0 0.0 0.0 0.0 0.0 0.0 0.0 0.0 0.0 0.0 0.0 0.0 0.0
0.0 0.0 0.0 0.0 0.0 0.0 0.0 0.0 0.0 0.0 0.0 0.0 0.0 0.0 0.0 0.0 0.0 0.0 0.0 0.0 0.0 0.0 0.0 0.0 0.0 0.0 0.0 0.0 0.0 0.0 0.0 0.0 0.0 0.0 0.0 0.0 0.0 0.0 0.0 0.0 0.0 0.0 0.0 0.0
0.4 0.0 0.1 2.5 0.0 0.0 0.0 0.0 0.0 0.1 0.0 0.0 0.0 0.0 0.0 0.0 0.0 0.0 0.0 0.0 0.0 0.0 0.0 0.0 0.0 0.0 0.0 0.0 0.0 0.0 0.0 0.0 0.0 0.0 0.0 0.0 0.0 0.0 0.0 0.0 0.0 0.0 0.0 0.0
2.9 1.3 5.5 0.0 0.0 0.0 0.0 0.0 0.0 0.0 0.0 0.0 0.0 0.0 0.0 0.0 0.0 0.0 0.0 0.0 0.0 0.0 0.0 0.0 0.0 0.0 0.0 0.0 0.0 0.0 0.0 0.0 0.0 0.0 0.0 0.0 0.0 0.0 0.0 0.0 0.0 0.0 0.0 0.0
7.7 1.0 0.0 0.0 0.0 0.0 0.0 0.0 0.0 0.0 0.0 0.0 0.0 0.0 0.0 0.0 0.0 0.0 0.0 0.0 0.0 0.0 0.0 0.0 0.0 0.0 0.0 0.0 0.0 0.0 0.0 0.0 0.0 0.0 0.0 0.0 0.0 0.0 0.0 0.0 0.0 0.0 0.0 0.0
3.6 5.1 7.4 0.0 0.0 0.0 0.0 0.4 0.0 0.0 0.0 0.0 0.0 0.4 0.0 0.0 0.0 0.0 0.0 0.0 0.0 0.0 0.0 0.0 0.0 0.0 0.0 0.0 0.0 0.0 0.0 0.0 0.0 0.0 0.0 0.0 0.0 0.0 0.0 0.0 0.0 0.2 0.0 0.0
3.3 7.3 1.3 0.0 0.0 0.0 1.8 0.1 0.0 0.0 0.0 0.0 0.0 0.0 0.0 0.0 0.0 0.0 0.0 0.0 0.0 0.0 0.0 0.0 0.0 0.0 0.0 0.0 0.0 0.0 0.0 0.0 0.0 0.0 0.0 0.0 0.0 0.0 0.0 0.0 0.1 0.5 1.3 0.2
5.0 8.7 8.0 0.0 0.0 0.7 0.2 0.0 0.0 0.0 0.0 0.0 0.0 0.0 0.0 0.0 0.0 0.0 0.0 0.0 0.0 0.0 0.0 0.0 0.0 0.0 0.0 0.0 0.0 0.0 0.0 0.0 0.0 0.0 0.0 0.0 0.0 0.0 0.0 0.2 0.2 2.5 4.2 1.7
0.1 1.0 0.0 0.0 0.0 0.0 0.0 0.0 0.0 0.0 0.0 0.0 0.0 0.0 0.0 0.0 0.0 0.0 0.0 0.0 0.0 0.0 0.0 0.0 0.0 0.0 0.0 0.0 0.0 0.0 0.0 0.0 0.0 0.0 0.0 0.0 0.0 0.0 0.3 0.0 0.7 2.0 3.3 2.6
0.1 0.0 0.0 0.0 0.0 0.0 0.0 0.0 0.0 0.0 0.0 0.0 0.0 0.0 0.0 0.0 0.0 0.0 0.0 0.0 0.0 0.0 0.0 0.0 0.0 0.0 0.0 0.0 0.0 0.0 0.0 0.0 0.0 0.0 0.0 0.0 0.1 0.1 0.4 0.7 1.4 1.4 2.8 3.4
0.0 0.0 0.0 0.0 0.0 0.0 0.0 0.0 0.0 0.0 0.0 0.0 0.0 0.0 0.0 0.0 0.0 0.0 0.0 0.0 0.0 0.0 0.0 0.0 0.0 0.0 0.0 0.0 0.0 0.0 0.0 0.0 0.1 0.1 0.2 0.3 0.0 0.3 0.7 0.3 1.7 3.3 2.0 3.2
0.5 0.0 0.0 0.0 0.0 0.0 0.0 0.0 0.0 0.0 0.0 0.0 0.0 0.0 0.0 0.0 0.0 0.0 0.0 0.0 0.0 0.0 0.0 0.0 0.0 0.0 0.0 0.0 0.0 0.0 0.1 0.2 0.7 0.8 0.8 0.6 0.6 0.7 nan nan nan nan nan 6.4
0.0 0.0 0.0 0.0 0.0 0.0 0.0 0.0 0.0 0.0 0.0 0.0 0.0 0.0 0.0 0.0 0.0 nan 0.0 0.0 0.0 0.0 0.0 0.0 0.0 0.0 0.0 0.0 0.1 0.4 0.3 0.6 1.0 1.0 1.0 1.0 1.1 1.3 2.2 2.1 nan nan nan nan
0.0 0.0 0.0 0.0 0.0 0.0 0.0 0.0 0.0 0.0 0.0 0.0 0.0 0.0 0.0 0.0 0.0 0.0 0.0 0.0 0.0 0.0 0.0 0.0 0.0 0.0 0.0 0.0 0.2 1.1 0.6 0.2 1.4 1.3 1.3 1.6 2.6 2.8 2.7 4.2 7.8 5.1 nan nan
0.0 0.0 0.0 0.0 0.0 0.0 0.0 0.0 0.0 0.0 0.0 0.0 0.0 0.0 0.0 0.0 0.0 0.0 0.0 0.0 0.0 0.0 0.0 0.0 0.0 0.0 0.1 0.1 0.1 0.2 0.5 1.4 2.9 4.2 4.4 3.7 3.9 3.9 3.6 4.5 5.0 4.1 3.1 3.8
0.0 0.0 0.0 0.0 0.0 0.0 0.0 0.0 0.0 0.0 0.0 0.0 0.0 0.0 0.0 0.0 0.0 0.0 0.0 0.1 0.3 0.4 0.1 4.7 1.7 0.2 0.1 0.1 0.1 0.1 0.4 0.0 1.5 3.0 3.8 3.9 3.3 4.1 3.8 4.5 4.5 4.9 4.5 4.6
0.0 0.0 0.0 0.0 0.0 0.0 0.0 0.0 0.0 0.0 0.0 0.1 0.1 0.2 0.2 0.4 0.4 0.2 0.1 0.4 2.6 3.3 2.6 2.1 0.9 0.1 0.1 0.1 0.1 0.5 0.7 1.1 0.4 2.3 2.8 3.3 4.5 5.3 5.0 6.7 6.7 5.9 10.8 16.6
0.0 0.0 0.0 0.0 0.0 0.0 0.0 0.0 0.0 0.1 0.1 0.0 1.2 4.7 5.8 5.2 1.0 1.2 1.7 1.8 3.2 3.4 1.3 1.2 0.9 0.2 0.3 0.1 0.3 0.7 1.9 2.3 3.3 4.5 4.0 6.4 4.5 4.2 6.7 6.3 6.3 7.0 9.3 7.9
0.0 0.0 0.0 0.0 0.0 0.0 0.0 0.0 0.2 0.2 2.8 2.6 5.4 5.7 4.2 4.6 1.1 0.7 1.1 5.9 6.7 2.0 0.7 0.9 0.0 0.5 0.2 0.2 0.4 2.0 3.6 6.3 3.9 2.5 3.6 6.9 9.3 4.6 8.2 10.6 9.1 11.8 7.5 8.9
0.0 0.0 0.0 0.0 0.0 0.1 0.5 0.3 1.5 0.5 0.2 0.9 5.5 6.6 3.4 5.0 5.6 6.8 3.7 2.6 1.1 1.2 0.6 0.3 0.4 0.7 0.8 0.6 2.1 1.8 4.4 8.7 4.8 7.8 10.0 5.5 13.2 18.6 13.5 7.8 8.9 12.8 22.9 19.8
0.0 0.0 0.2 0.4 0.4 1.6 3.0 3.5 2.8 0.5 0.6 4.4 7.0 7.7 7.0 4.3 5.3 7.5 4.9 1.9 0.7 1.9 0.6 1.0 0.9 0.9 0.5 0.6 0.7 5.6 9.6 12.5 12.8 9.0 8.9 16.6 20.4 16.3 18.3 21.3 19.4 22.3 26.4 22.3
0.0 1.0 2.8 1.9 1.0 0.5 0.9 0.5 0.4 3.0 3.0 5.8 9.8 11.4 9.2 2.9 4.4 4.4 6.3 2.1 1.2 3.0 1.7 2.0 1.3 3.9 2.8 5.9 3.2 11.3 6.2 7.1 9.6 9.9 10.8 15.4 16.5 23.6 25.1 21.9 22.2 24.3 24.2 26.6
0.0 0.1 0.5 1.6 1.8 0.2 0.4 1.2 3.9 4.0 6.6 5.8 7.4 4.8 3.9 1.8 1.7 3.8 4.1 0.4 1.4 4.5 2.0 4.2 5.4 5.7 6.5 13.7 12.5 14.0 13.2 13.5 13.3 11.9 12.2 17.7 16.5 27.9 16.0 16.2 18.7 19.9 27.1 19.4
0.0 0.1 0.1 0.2 0.7 0.8 1.3 0.1 0.2 0.5 4.9 2.8 3.9 5.7 2.8 5.7 8.8 2.0 1.5 6.1 6.4 15.7 14.0 8.2 10.4 6.5 7.1 14.7 13.8 15.5 14.2 15.7 16.8 19.2 9.7 9.0 25.1 18.1 14.3 21.5 14.3 18.4 21.9 18.7
0.3 0.2 0.2 1.4 0.6 0.6 0.1 0.1 0.3 0.5 0.8 1.0 1.1 0.6 1.1 1.9 7.3 3.7 6.2 6.0 6.8 5.9 8.3 6.6 6.5 7.2 17.5 18.4 16.4 16.4 16.3 14.8 16.9 22.3 16.9 22.4 20.2 28.0 22.2 17.4 21.6 22.4 25.2 22.8
0.1 0.5 0.4 0.1 0.3 0.4 0.4 0.8 1.4 1.6 2.1 5.1 4.1 9.3 9.7 4.7 4.3 4.2 5.9 6.6 5.1 6.4 5.6 12.6 17.9 18.7 18.3 13.6 15.3 15.4 11.4 8.4 14.2 14.6 17.9 16.8 16.7 13.9 18.9 16.3 20.7 24.7 32.2 37.1
0.6 0.2 0.8 0.7 0.6 0.8 1.2 1.5 3.7 3.9 4.4 8.0 7.1 10.1 4.1 6.8 9.1 6.7 8.1 12.4 12.1 13.5 13.4 15.0 13.4 10.1 8.4 14.3 12.6 11.6 11.8 11.7 10.5 10.5 19.1 25.2 24.4 32.0 29.8 28.4 29.5 30.2 28.8 28.2

GFSNGP_prec_sndepth_048.txt.gz
Snowfall_Accumulation
0.0 0.0 0.0 0.0 0.0 0.0 0.0 0.0 0.4 0.0 0.0 0.0 0.0 0.0 0.0 0.0 0.0 0.0 0.0 0.0 0.0 0.0 0.0 0.0 0.0 0.0 0.0 0.0 0.0 0.0 0.0 0.0 0.0 0.0 0.0 0.0 0.0 0.0 0.0 0.0 0.0 0.0 0.0 0.0
0.0 0.0 0.0 0.0 0.0 0.0 0.0 0.0 0.0 0.0 0.0 0.0 0.0 0.0 0.0 0.0 0.0 0.0 0.0 0.0 0.0 0.0 0.0 0.0 0.0 0.0 0.0 0.0 0.0 0.0 0.0 0.0 0.0 0.0 0.0 0.0 0.0 0.0 0.0 0.0 0.0 0.0 0.0 0.0
0.2 0.0 0.1 2.0 0.0 0.0 0.0 0.0 0.0 0.1 0.0 0.0 0.0 0.0 0.0 0.0 0.0 0.0 0.0 0.0 0.0 0.0 0.0 0.0 0.0 0.0 0.0 0.0 0.0 0.0 0.0 0.0 0.0 0.0 0.0 0.0 0.0 0.0 0.0 0.0 0.0 0.0 0.0 0.0
2.4 1.1 4.5 0.0 0.0 0.0 0.0 0.0 0.0 0.0 0.0 0.0 0.0 0.0 0.0 0.0 0.0 0.0 0.0 0.0 0.0 0.0 0.0 0.0 0.0 0.0 0.0 0.0 0.0 0.0 0.0 0.0 0.0 0.0 0.0 0.0 0.0 0.0 0.0 0.0 0.0 0.0 0.0 0.0
6.5 0.8 0.0 0.0 0.0 0.0 0.0 0.0 0.0 0.0 0.0 0.0 0.0 0.0 0.0 0.0 0.0 0.0 0.0 0.0 0.0 0.0 0.0 0.0 0.0 0.0 0.0 0.0 0.0 0.0 0.0 0.0 0.0 0.0 0.0 0.0 0.0 0.0 0.0 0.0 0.0 0.0 0.0 0.0
2.9 4.0 6.3 0.0 0.0 0.0 0.0 0.4 0.0 0.0 0.0 0.0 0.0 0.4 0.0 0.0 0.0 0.0 0.0 0.0 0.0 0.0 0.0 0.0 0.0 0.0 0.0 0.0 0.0 0.0 0.0 0.0 0.0 0.0 0.0 0.0 0.0 0.0 0.0 0.0 0.0 0.1 0.0 0.0
2.7 5.9 1.1 0.0 0.0 0.0 1.5 0.1 0.0 0.0 0.0 0.0 0.0 0.0 0.0 0.0 0.0 0.0 0.0 0.0 0.0 0.0 0.0 0.0 0.0 0.0 0.0 0.0 0.0 0.0 0.0 0.0 0.0 0.0 0.0 0.0 0.0 0.0 0.0 0.0 0.1 0.3 0.9 0.1
4.3 7.4 6.9 0.0 0.0 0.5 0.2 0.0 0.0 0.0 0.0 0.0 0.0 0.0 0.0 0.0 0.0 0.0 0.0 0.0 0.0 0.0 0.0 0.0 0.0 0.0 0.0 0.0 0.0 0.0 0.0 0.0 0.0 0.0 0.0 0.0 0.0 0.0 0.0 0.1 0.2 1.8 3.2 1.1
0.1 0.8 0.0 0.0 0.0 0.0 0.0 0.0 0.0 0.0 0.0 0.0 0.0 0.0 0.0 0.0 0.0 0.0 0.0 0.0 0.0 0.0 0.0 0.0 0.0 0.0 0.0 0.0 0.0 0.0 0.0 0.0 0.0 0.0 0.0 0.0 0.0 0.0 0.2 0.0 0.6 1.3 2.8 2.1
0.1 0.0 0.0 0.0 0.0 0.0 0.0 0.0 0.0 0.0 0.0 0.0 0.0 0.0 0.0 0.0 0.0 0.0 0.0 0.0 0.0 0.0 0.0 0.0 0.0 0.0 0.0 0.0 0.0 0.0 0.0 0.0 0.0 0.0 0.0 0.0 0.0 0.1 0.4 0.6 1.2 1.2 2.4 3.0
0.0 0.0 0.0 0.0 0.0 0.0 0.0 0.0 0.0 0.0 0.0 0.0 0.0 0.0 0.0 0.0 0.0 0.0 0.0 0.0 0.0 0.0 0.0 0.0 0.0 0.0 0.0 0.0 0.0 0.0 0.0 0.0 0.0 0.1 0.2 0.2 0.0 0.3 0.6 0.2 1.3 2.6 1.7 2.7
0.4 0.0 0.0 0.0 0.0 0.0 0.0 0.0 0.0 0.0 0.0 0.0 0.0 0.0 0.0 0.0 0.0 0.0 0.0 0.0 0.0 0.0 0.0 0.0 0.0 0.0 0.0 0.0 0.0 0.0 0.1 0.1 0.6 0.7 0.7 0.5 0.6 0.6 nan nan nan nan nan 5.1
0.0 0.0 0.0 0.0 0.0 0.0 0.0 0.0 0.0 0.0 0.0 0.0 0.0 0.0 0.0 0.0 0.0 nan 0.0 0.0 0.0 0.0 0.0 0.0 0.0 0.0 0.0 0.0 0.1 0.2 0.2 0.3 0.8 0.8 0.8 0.9 1.0 1.1 1.8 1.6 nan nan nan nan
0.0 0.0 0.0 0.0 0.0 0.0 0.0 0.0 0.0 0.0 0.0 0.0 0.0 0.0 0.0 0.0 0.0 0.0 0.0 0.0 0.0 0.0 0.0 0.0 0.0 0.0 0.0 0.0 0.1 0.6 0.3 0.0 1.2 1.1 1.1 1.4 2.2 2.4 2.4 3.6 6.7 4.2 nan nan
0.0 0.0 0.0 0.0 0.0 0.0 0.0 0.0 0.0 0.0 0.0 0.0 0.0 0.0 0.0 0.0 0.0 0.0 0.0 0.0 0.0 0.0 0.0 0.0 0.0 0.0 0.0 0.0 0.1 0.1 0.4 1.2 2.4 3.5 3.7 3.0 3.2 3.3 3.1 3.8 4.2 3.4 2.5 3.1
0.0 0.0 0.0 0.0 0.0 0.0 0.0 0.0 0.0 0.0 0.0 0.0 0.0 0.0 0.0 0.0 0.0 0.0 0.0 0.1 0.3 0.3 0.1 4.2 1.2 0.1 0.1 0.0 0.1 0.1 0.3 0.0 1.2 2.5 3.2 3.2 2.7 3.5 3.2 3.8 3.8 4.2 3.8 3.7
0.0 0.0 0.0 0.0 0.0 0.0 0.0 0.0 0.0 0.0 0.0 0.1 0.0 0.1 0.2 0.3 0.3 0.2 0.0 0.3 2.1 2.7 2.0 1.5 0.6 0.1 0.1 0.0 0.1 0.4 0.6 0.9 0.0 1.8 2.3 2.7 3.8 4.4 4.1 5.5 5.6 5.0 9.0 13.5
0.0 0.0 0.0 0.0 0.0 0.0 0.0 0.0 0.0 0.0 0.0 0.0 1.0 4.3 5.5 5.0 0.7 0.9 1.2 1.3 2.7 3.0 0.8 0.7 0.6 0.1 0.2 0.0 0.2 0.6 1.7 2.1 2.9 3.9 3.4 5.5 3.8 3.6 5.5 5.2 5.2 5.9 7.6 6.3
0.0 0.0 0.0 0.0 0.0 0.0 0.0 0.0 0.1 0.1 2.5 2.2 4.9 5.2 3.8 4.2 0.8 0.5 0.7 5.5 6.4 1.6 0.4 0.5 0.0 0.3 0.1 0.1 0.2 1.7 3.2 5.8 3.7 2.4 3.2 6.6 8.2 4.0 7.0 9.0 7.5 9.7 6.1 7.4
0.0 0.0 0.0 0.0 0.0 0.1 0.4 0.2 1.3 0.3 0.1 0.8 5.2 6.2 3.0 4.6 5.0 6.3 3.3 2.2 0.6 1.0 0.3 0.2 0.2 0.4 0.5 0.4 1.8 1.6 3.8 7.6 4.2 6.7 8.5 4.7 11.3 16.1 11.4 7.3 7.4 10.8 19.7 16.8
0.0 0.0 0.1 0.3 0.3 1.3 2.9 3.4 2.6 0.4 0.4 4.3 6.7 7.6 7.0 4.0 5.0 7.2 4.4 1.5 0.4 1.3 0.3 0.7 0.6 0.8 0.4 0.5 0.7 4.7 8.0 10.8 11.2 7.8 7.7 14.6 18.0 14.1 15.8 18.3 16.8 19.4 23.2 19.5
0.0 0.8 2.7 1.7 0.8 0.3 0.7 0.4 0.3 2.9 2.9 5.8 9.8 11.4 9.2 2.6 4.0 4.0 5.8 1.7 0.9 2.5 1.4 1.7 1.1 3.5 2.6 5.6 2.7 9.8 5.2 6.0 8.2 8.5 9.4 13.6 14.5 20.9 22.0 19.1 19.4 21.3 21.3 23.2
0.0 0.0 0.4 1.5 1.7 0.1 0.3 1.1 3.9 3.9 6.6 5.7 7.4 4.7 3.6 1.5 1.5 3.5 4.0 0.2 1.2 4.1 1.8 3.8 5.3 5.3 6.4 12.6 11.2 12.7 12.2 12.6 12.7 11.6 11.9 17.2 15.5 25.0 14.1 14.1 16.3 17.3 23.9 16.8
0.0 0.0 0.0 0.1 0.6 0.7 1.2 0.1 0.1 0.3 4.9 2.8 3.9 5.7 2.7 5.4 8.1 1.6 1.2 5.7 6.0 14.6 13.1 7.5 9.9 6.4 7.2 13.9 13.0 14.9 13.8 15.6 16.7 19.1 9.6 9.0 24.9 17.9 13.9 20.3 13.3 16.1 19.1 16.2
0.3 0.1 0.2 1.3 0.5 0.6 0.1 0.1 0.3 0.5 0.8 0.9 1.0 0.5 1.0 1.7 7.2 3.3 5.5 5.3 6.5 5.4 7.7 6.7 6.6 7.3 17.3 18.4 16.3 16.3 16.2 14.7 16.8 22.1 16.8 22.2 20.1 27.8 22.1 17.3 21.4 21.6 23.6 20.6
0.1 0.4 0.3 0.1 0.3 0.3 0.4 0.7 1.3 1.5 2.0 5.0 4.1 9.2 9.6 4.6 4.2 3.9 5.4 6.3 4.7 6.3 5.8 13.1 18.5 19.3 18.6 13.7 15.3 15.4 11.4 8.4 14.2 14.5 17.7 16.7 16.6 13.9 18.7 16.2 20.6 24.6 32.0 36.8
0.6 0.2 0.8 0.7 0.5 0.8 1.2 1.5 3.6 3.9 4.3 7.9 7.0 10.0 4.0 6.7 9.1 6.7 8.1 12.4 12.1 13.7 13.9 15.6 14.0 10.4 8.9 14.5 12.7 11.7 11.9 11.8 10.5 10.4 18.9 25.0 24.2 31.7 29.6 28.2 29.4 30.0 28.7 28.1

GFSNGP_prec_sndepth_051.txt.gz
Snowfall_Accumulation
0.0 0.0 0.0 0.0 0.0 0.0 0.0 0.0 0.3 0.0 0.0 0.0 0.0 0.0 0.0 0.0 0.0 0.0 0.0 0.0 0.0 0.0 0.0 0.0 0.0 0.0 0.0 0.0 0.0 0.0 0.0 0.0 0.0 0.0 0.0 0.0 0.0 0.0 0.0 0.0 0.0 0.0 0.0 0.0
0.0 0.0 0.0 0.0 0.0 0.0 0.0 0.0 0.0 0.0 0.0 0.0 0.0 0.0 0.0 0.0 0.0 0.0 0.0 0.0 0.0 0.0 0.0 0.0 0.0 0.0 0.0 0.0 0.0 0.0 0.0 0.0 0.0 0.0 0.0 0.0 0.0 0.0 0.0 0.0 0.0 0.0 0.0 0.0
0.1 0.0 0.0 1.3 0.0 0.0 0.0 0.0 0.0 0.0 0.0 0.0 0.0 0.0 0.0 0.0 0.0 0.0 0.0 0.0 0.0 0.0 0.0 0.0 0.0 0.0 0.0 0.0 0.0 0.0 0.0 0.0 0.0 0.0 0.0 0.0 0.0 0.0 0.0 0.0 0.0 0.0 0.0 0.0
1.7 0.8 3.2 0.0 0.0 0.0 0.0 0.0 0.0 0.0 0.0 0.0 0.0 0.0 0.0 0.0 0.0 0.0 0.0 0.0 0.0 0.0 0.0 0.0 0.0 0.0 0.0 0.0 0.0 0.0 0.0 0.0 0.0 0.0 0.0 0.0 0.0 0.0 0.0 0.0 0.0 0.0 0.0 0.0
5.1 0.6 0.0 0.0 0.0 0.0 0.0 0.0 0.0 0.0 0.0 0.0 0.0 0.0 0.0 0.0 0.0 0.0 0.0 0.0 0.0 0.0 0.0 0.0 0.0 0.0 0.0 0.0 0.0 0.0 0.0 0.0 0.0 0.0 0.0 0.0 0.0 0.0 0.0 0.0 0.0 0.0 0.0 0.0
2.0 2.4 4.8 0.0 0.0 0.0 0.0 0.3 0.0 0.0 0.0 0.0 0.0 0.3 0.0 0.0 0.0 0.0 0.0 0.0 0.0 0.0 0.0 0.0 0.0 0.0 0.0 0.0 0.0 0.0 0.0 0.0 0.0 0.0 0.0 0.0 0.0 0.0 0.0 0.0 0.0 0.1 0.0 0.0
1.9 4.4 0.8 0.0 0.0 0.0 1.1 0.1 0.0 0.0 0.0 0.0 0.0 0.0 0.0 0.0 0.0 0.0 0.0 0.0 0.0 0.0 0.0 0.0 0.0 0.0 0.0 0.0 0.0 0.0 0.0 0.0 0.0 0.0 0.0 0.0 0.0 0.0 0.0 0.0 0.0 0.2 0.5 0.1
3.3 6.0 5.4 0.0 0.0 0.2 0.1 0.0 0.0 0.0 0.0 0.0 0.0 0.0 0.0 0.0 0.0 0.0 0.0 0.0 0.0 0.0 0.0 0.0 0.0 0.0 0.0 0.0 0.0 0.0 0.0 0.0 0.0 0.0 0.0 0.0 0.0 0.0 0.0 0.1 0.1 1.3 2.5 0.8
0.1 0.6 0.0 0.0 0.0 0.0 0.0 0.0 0.0 0.0 0.0 0.0 0.0 0.0 0.0 0.0 0.0 0.0 0.0 0.0 0.0 0.0 0.0 0.0 0.0 0.0 0.0 0.0 0.0 0.0 0.0 0.0 0.0 0.0 0.0 0.0 0.0 0.0 0.2 0.0 0.6 0.9 2.3 1.8
0.1 0.0 0.0 0.0 0.0 0.0 0.0 0.0 0.0 0.0 0.0 0.0 0.0 0.0 0.0 0.0 0.0 0.0 0.0 0.0 0.0 0.0 0.0 0.0 0.0 0.0 0.0 0.0 0.0 0.0 0.0 0.0 0.0 0.0 0.0 0.0 0.0 0.1 0.3 0.5 1.0 1.0 1.9 2.4
0.0 0.0 0.0 0.0 0.0 0.0 0.0 0.0 0.0 0.0 0.0 0.0 0.0 0.0 0.0 0.0 0.0 0.0 0.0 0.0 0.0 0.0 0.0 0.0 0.0 0.0 0.0 0.0 0.0 0.0 0.0 0.0 0.0 0.1 0.1 0.1 0.0 0.2 0.5 0.1 1.0 1.9 1.3 2.1
0.3 0.0 0.0 0.0 0.0 0.0 0.0 0.0 0.0 0.0 0.0 0.0 0.0 0.0 0.0 0.0 0.0 0.0 0.0 0.0 0.0 0.0 0.0 0.0 0.0 0.0 0.0 0.0 0.0 0.0 0.0 0.1 0.5 0.6 0.6 0.5 0.5 0.5 nan nan nan nan nan 3.9
0.0 0.0 0.0 0.0 0.0 0.0 0.0 0.0 0.0 0.0 0.0 0.0 0.0 0.0 0.0 0.0 0.0 nan 0.0 0.0 0.0 0.0 0.0 0.0 0.0 0.0 0.0 0.0 0.0 0.1 0.1 0.1 0.7 0.7 0.7 0.8 0.9 1.0 1.6 1.3 nan nan nan nan
0.0 0.0 0.0 0.0 0.0 0.0 0.0 0.0 0.0 0.0 0.0 0.0 0.0 0.0 0.0 0.0 0.0 0.0 0.0 0.0 0.0 0.0 0.0 0.0 0.0 0.0 0.0 0.0 0.1 0.2 0.1 0.0 0.9 0.9 1.0 1.2 1.9 2.1 2.0 3.1 5.8 3.5 nan nan
0.0 0.0 0.0 0.0 0.0 0.0 0.0 0.0 0.0 0.0 0.0 0.0 0.0 0.0 0.0 0.0 0.0 0.0 0.0 0.0 0.0 0.0 0.0 0.0 0.0 0.0 0.0 0.0 0.0 0.0 0.3 0.9 1.8 2.8 3.0 2.4 2.6 2.8 2.6 3.3 3.6 2.8 2.1 2.4
0.0 0.0 0.0 0.0 0.0 0.0 0.0 0.0 0.0 0.0 0.0 0.0 0.0 0.0 0.0 0.0 0.0 0.0 0.0 0.0 0.2 0.2 0.0 3.5 0.6 0.1 0.0 0.0 0.0 0.0 0.2 0.0 0.9 2.0 2.5 2.6 2.2 2.9 2.6 3.1 3.2 3.4 3.2 3.1
0.0 0.0 0.0 0.0 0.0 0.0 0.0 0.0 0.0 0.0 0.0 0.0 0.0 0.1 0.1 0.2 0.1 0.1 0.0 0.1 1.5 1.9 1.2 0.8 0.3 0.0 0.0 0.0 0.0 0.3 0.5 0.7 0.0 1.4 1.8 2.1 3.0 3.5 3.3 4.4 4.6 4.0 7.3 11.2
0.0 0.0 0.0 0.0 0.0 0.0 0.0 0.0 0.0 0.0 0.0 0.0 0.7 3.6 4.7 4.3 0.5 0.5 0.7 0.7 1.9 2.2 0.3 0.3 0.2 0.1 0.1 0.0 0.1 0.4 1.3 1.7 2.4 3.4 2.9 4.6 3.1 2.8 4.4 4.2 4.2 4.7 5.9 5.0
0.0 0.0 0.0 0.0 0.0 0.0 0.0 0.0 0.1 0.1 2.1 1.8 4.3 4.5 3.1 3.5 0.4 0.2 0.4 4.7 5.5 1.0 0.2 0.2 0.0 0.2 0.1 0.1 0.2 1.3 2.5 4.9 3.2 2.0 2.8 6.0 6.8 3.2 5.7 7.2 6.0 7.9 4.9 5.9
0.0 0.0 0.0 0.0 0.0 0.1 0.2 0.1 0.9 0.2 0.1 0.5 4.6 5.5 2.4 4.1 4.3 5.5 2.6 1.5 0.3 0.7 0.1 0.1 0.1 0.2 0.2 0.2 1.5 1.3 3.2 6.3 3.5 5.7 7.1 3.8 9.3 13.6 9.3 6.7 6.1 8.9 16.8 14.1
0.0 0.0 0.1 0.2 0.2 0.9 2.4 2.9 2.1 0.2 0.2 4.0 6.4 7.6 6.9 3.6 4.4 6.5 3.6 1.2 0.2 0.6 0.2 0.1 0.4 0.6 0.4 0.5 0.6 3.8 6.8 9.4 9.7 6.3 6.5 12.6 15.7 11.8 13.4 15.6 14.2 16.6 19.9 16.5
0.0 0.6 2.2 1.3 0.4 0.2 0.5 0.2 0.2 2.7 2.7 5.7 9.7 11.4 9.1 2.3 3.7 3.4 5.2 1.3 0.7 2.0 1.1 1.3 0.9 3.1 2.4 5.3 2.7 9.0 4.8 5.6 7.5 8.2 8.6 11.9 12.8 18.7 19.3 16.6 16.8 18.5 18.5 20.1
0.0 0.0 0.3 1.2 1.4 0.1 0.2 0.8 3.8 3.7 6.6 5.7 7.4 4.6 3.3 1.3 1.2 2.9 3.4 0.1 0.9 3.6 1.4 3.0 4.6 4.7 5.7 11.7 10.6 11.9 11.4 11.8 12.4 11.5 11.8 17.1 15.4 24.9 13.9 13.6 15.3 16.3 21.9 15.2
0.0 0.0 0.0 0.1 0.4 0.5 0.9 0.0 0.1 0.2 4.8 2.7 3.8 5.7 2.6 5.0 7.5 1.3 1.0 5.5 5.8 13.6 11.8 6.6 9.1 6.0 6.9 13.3 12.6 14.2 13.5 15.6 16.7 19.0 9.5 9.0 24.8 17.9 13.9 20.2 13.3 16.0 18.8 15.6
0.2 0.1 0.1 1.0 0.3 0.5 0.1 0.0 0.2 0.3 0.5 0.7 0.8 0.4 0.8 1.4 7.1 3.0 5.1 4.8 6.3 5.0 7.5 6.7 6.6 7.3 17.5 18.7 16.7 16.7 16.5 14.8 16.8 22.0 16.7 22.1 20.0 27.6 22.0 17.2 21.3 21.5 23.4 20.5
0.0 0.4 0.3 0.0 0.2 0.3 0.4 0.6 1.2 1.3 1.8 4.9 3.9 9.0 9.5 4.3 4.1 3.7 5.3 6.2 4.6 6.3 5.8 13.2 18.6 19.4 18.9 14.0 15.7 15.7 11.7 8.6 14.3 14.5 17.7 16.6 16.6 13.8 18.6 16.1 20.5 24.4 31.8 36.5
0.5 0.2 0.7 0.6 0.5 0.7 1.1 1.3 3.5 3.8 4.3 7.8 6.9 9.9 3.9 6.7 9.0 6.6 8.1 12.3 12.1 13.7 13.9 15.7 14.1 10.5 9.1 14.8 13.0 12.0 12.1 12.0 10.5 10.4 18.8 24.8 23.9 31.4 29.3 28.0 29.1 29.8 28.4 27.8

GFSNGP_prec_sndepth_054.txt.gz
Snowfall_Accumulation
0.0 0.0 0.0 0.0 0.0 0.0 0.0 0.0 0.2 0.0 0.0 0.0 0.0 0.0 0.0 0.0 0.0 0.0 0.0 0.0 0.0 0.0 0.0 0.0 0.0 0.0 0.0 0.0 0.0 0.0 0.0 0.0 0.0 0.0 0.0 0.0 0.0 0.0 0.0 0.0 0.0 0.0 0.0 0.0
0.0 0.0 0.0 0.0 0.0 0.0 0.0 0.0 0.0 0.0 0.0 0.0 0.0 0.0 0.0 0.0 0.0 0.0 0.0 0.0 0.0 0.0 0.0 0.0 0.0 0.0 0.0 0.0 0.0 0.0 0.0 0.0 0.0 0.0 0.0 0.0 0.0 0.0 0.0 0.0 0.0 0.0 0.0 0.0
0.1 0.0 0.0 0.9 0.0 0.0 0.0 0.0 0.0 0.0 0.0 0.0 0.0 0.0 0.0 0.0 0.0 0.0 0.0 0.0 0.0 0.0 0.0 0.0 0.0 0.0 0.0 0.0 0.0 0.0 0.0 0.0 0.0 0.0 0.0 0.0 0.0 0.0 0.0 0.0 0.0 0.0 0.0 0.0
1.3 0.7 2.5 0.0 0.0 0.0 0.0 0.0 0.0 0.0 0.0 0.0 0.0 0.0 0.0 0.0 0.0 0.0 0.0 0.0 0.0 0.0 0.0 0.0 0.0 0.0 0.0 0.0 0.0 0.0 0.0 0.0 0.0 0.0 0.0 0.0 0.0 0.0 0.0 0.0 0.0 0.0 0.0 0.0
4.1 0.5 0.0 0.0 0.0 0.0 0.0 0.0 0.0 0.0 0.0 0.0 0.0 0.0 0.0 0.0 0.0 0.0 0.0 0.0 0.0 0.0 0.0 0.0 0.0 0.0 0.0 0.0 0.0 0.0 0.0 0.0 0.0 0.0 0.0 0.0 0.0 0.0 0.0 0.0 0.0 0.0 0.0 0.0
1.5 1.7 4.0 0.0 0.0 0.0 0.0 0.2 0.0 0.0 0.0 0.0 0.0 0.2 0.0 0.0 0.0 0.0 0.0 0.0 0.0 0.0 0.0 0.0 0.0 0.0 0.0 0.0 0.0 0.0 0.0 0.0 0.0 0.0 0.0 0.0 0.0 0.0 0.0 0.0 0.0 0.1 0.0 0.0
1.4 3.6 0.6 0.0 0.0 0.0 0.9 0.1 0.0 0.0 0.0 0.0 0.0 0.0 0.0 0.0 0.0 0.0 0.0 0.0 0.0 0.0 0.0 0.0 0.0 0.0 0.0 0.0 0.0 0.0 0.0 0.0 0.0 0.0 0.0 0.0 0.0 0.0 0.0 0.0 0.0 0.2 0.4 0.0
2.7 5.2 4.5 0.0 0.0 0.2 0.1 0.0 0.0 0.0 0.0 0.0 0.0 0.0 0.0 0.0 0.0 0.0 0.0 0.0 0.0 0.0 0.0 0.0 0.0 0.0 0.0 0.0 0.0 0.0 0.0 0.0 0.0 0.0 0.0 0.0 0.0 0.0 0.0 0.0 0.1 1.1 2.2 0.7
0.1 0.5 0.0 0.0 0.0 0.0 0.0 0.0 0.0 0.0 0.0 0.0 0.0 0.0 0.0 0.0 0.0 0.0 0.0 0.0 0.0 0.0 0.0 0.0 0.0 0.0 0.0 0.0 0.0 0.0 0.0 0.0 0.0 0.0 0.0 0.0 0.0 0.0 0.2 0.0 0.5 0.8 2.1 1.6
0.0 0.0 0.0 0.0 0.0 0.0 0.0 0.0 0.0 0.0 0.0 0.0 0.0 0.0 0.0 0.0 0.0 0.0 0.0 0.0 0.0 0.0 0.0 0.0 0.0 0.0 0.0 0.0 0.0 0.0 0.0 0.0 0.0 0.0 0.0 0.0 0.0 0.0 0.3 0.5 0.9 0.9 1.7 2.2
0.0 0.0 0.0 0.0 0.0 0.0 0.0 0.0 0.0 0.0 0.0 0.0 0.0 0.0 0.0 0.0 0.0 0.0 0.0 0.0 0.0 0.0 0.0 0.0 0.0 0.0 0.0 0.0 0.0 0.0 0.0 0.0 0.0 0.1 0.1 0.1 0.0 0.2 0.4 0.1 0.9 1.7 1.1 1.8
0.3 0.0 0.0 0.0 0.0 0.0 0.0 0.0 0.0 0.0 0.0 0.0 0.0 0.0 0.0 0.0 0.0 0.0 0.0 0.0 0.0 0.0 0.0 0.0 0.0 0.0 0.0 0.0 0.0 0.0 0.0 0.0 0.4 0.5 0.6 0.4 0.4 0.5 nan nan nan nan nan 3.5
0.0 0.0 0.0 0.0 0.0 0.0 0.0 0.0 0.0 0.0 0.0 0.0 0.0 0.0 0.0 0.0 0.0 nan 0.0 0.0 0.0 0.0 0.0 0.0 0.0 0.0 0.0 0.0 0.0 0.1 0.1 0.1 0.6 0.6 0.6 0.7 0.8 0.9 1.5 1.2 nan nan nan nan
0.0 0.0 0.0 0.0 0.0 0.0 0.0 0.0 0.0 0.0 0.0 0.0 0.0 0.0 0.0 0.0 0.0 0.0 0.0 0.0 0.0 0.0 0.0 0.0 0.0 0.0 0.0 0.0 0.0 0.2 0.1 0.0 0.8 0.8 0.8 1.1 1.7 1.8 1.8 2.8 5.3 3.2 nan nan
0.0 0.0 0.0 0.0 0.0 0.0 0.0 0.0 0.0 0.0 0.0 0.0 0.0 0.0 0.0 0.0 0.0 0.0 0.0 0.0 0.0 0.0 0.0 0.0 0.0 0.0 0.0 0.0 0.0 0.0 0.2 0.8 1.5 2.3 2.5 2.1 2.3 2.5 2.3 2.9 3.3 2.6 1.9 2.2
0.0 0.0 0.0 0.0 0.0 0.0 0.0 0.0 0.0 0.0 0.0 0.0 0.0 0.0 0.0 0.0 0.0 0.0 0.0 0.0 0.2 0.2 0.0 3.2 0.5 0.0 0.0 0.0 0.0 0.0 0.2 0.0 0.8 1.7 2.1 2.2 1.9 2.5 2.3 2.8 2.9 3.1 2.9 2.8
0.0 0.0 0.0 0.0 0.0 0.0 0.0 0.0 0.0 0.0 0.0 0.0 0.0 0.1 0.1 0.1 0.1 0.1 0.0 0.1 1.2 1.5 0.9 0.5 0.2 0.0 0.0 0.0 0.0 0.3 0.4 0.6 0.0 1.2 1.5 1.8 2.6 3.1 2.9 4.0 4.1 3.6 6.5 9.9
0.0 0.0 0.0 0.0 0.0 0.0 0.0 0.0 0.0 0.0 0.0 0.0 0.6 3.4 4.5 4.1 0.4 0.4 0.4 0.5 1.6 1.9 0.2 0.2 0.2 0.0 0.1 0.0 0.0 0.4 1.1 1.4 2.0 3.1 2.7 4.3 2.8 2.5 3.9 3.7 3.8 4.3 5.3 4.5
0.0 0.0 0.0 0.0 0.0 0.0 0.0 0.0 0.1 0.0 2.0 1.6 4.1 4.2 2.8 3.1 0.3 0.2 0.3 4.5 5.4 0.9 0.1 0.1 0.0 0.1 0.0 0.0 0.1 1.1 2.2 4.7 3.2 2.1 2.6 5.8 6.1 2.9 5.1 6.5 5.5 7.2 4.4 5.5
0.0 0.0 0.0 0.0 0.0 0.0 0.2 0.1 0.7 0.1 0.1 0.5 4.6 5.4 2.3 4.0 4.3 5.4 2.4 1.3 0.3 0.6 0.1 0.1 0.1 0.1 0.2 0.2 1.4 1.2 3.0 5.8 3.2 5.2 6.5 3.5 8.6 12.6 8.5 6.6 5.7 8.3 15.5 12.9
0.0 0.0 0.1 0.1 0.1 0.7 2.2 2.7 2.0 0.2 0.2 4.0 6.3 7.5 6.9 3.5 4.4 6.5 3.5 1.0 0.1 0.5 0.1 0.1 0.3 0.6 0.3 0.5 0.6 3.5 6.5 9.2 9.8 6.5 6.5 12.2 15.1 11.2 12.7 14.9 13.6 15.8 18.9 15.3
0.0 0.5 1.8 1.1 0.3 0.1 0.4 0.1 0.1 2.7 2.7 5.7 9.7 11.3 9.1 2.2 3.6 3.3 5.1 1.1 0.6 1.9 1.0 1.2 0.8 3.0 2.3 5.2 2.4 8.5 4.7 5.7 7.6 8.3 8.8 12.1 12.8 18.6 19.2 16.4 16.7 18.1 18.1 19.4
0.0 0.0 0.2 1.1 1.2 0.0 0.1 0.7 3.8 3.7 6.5 5.7 7.3 4.6 3.2 1.2 1.0 2.8 3.3 0.1 0.8 3.5 1.3 2.9 4.6 4.7 5.7 11.4 10.2 11.7 11.5 11.8 12.7 11.7 12.0 17.2 15.5 24.8 14.0 13.7 15.3 16.4 21.8 15.2
0.0 0.0 0.0 0.1 0.3 0.3 0.7 0.0 0.1 0.2 4.8 2.7 3.8 5.6 2.5 4.9 7.4 1.2 0.9 5.5 5.8 13.5 11.8 6.9 9.1 6.0 6.9 13.3 12.7 14.4 13.9 15.8 16.9 19.4 9.7 9.1 24.9 17.9 13.9 20.2 13.2 16.0 18.7 15.6
0.1 0.1 0.1 0.8 0.2 0.4 0.0 0.0 0.2 0.2 0.5 0.6 0.7 0.3 0.7 1.3 7.0 2.9 5.1 4.9 6.3 5.0 7.5 6.7 6.6 7.3 17.5 18.7 16.8 16.8 16.8 15.0 17.1 22.3 17.0 22.3 20.2 27.6 22.0 17.2 21.3 21.5 23.4 20.5
0.0 0.3 0.2 0.0 0.2 0.3 0.3 0.6 1.1 1.2 1.7 4.8 3.9 9.0 9.4 4.3 4.0 3.7 5.3 6.2 4.6 6.3 5.9 13.2 18.6 19.4 18.9 14.1 15.8 15.8 11.9 8.8 14.4 14.8 17.9 16.8 16.6 13.8 18.5 16.1 20.4 24.3 31.7 36.3
0.4 0.1 0.6 0.5 0.4 0.6 1.0 1.2 3.4 3.7 4.2 7.7 6.8 9.9 3.9 6.6 9.0 6.6 8.1 12.3 12.1 13.7 13.9 15.7 14.1 10.5 9.1 14.8 13.1 12.1 12.2 12.1 10.6 10.5 18.9 24.8 23.8 31.2 29.1 27.9 29.0 29.7 28.3 27.7

GFSNGP_prec_sndepth_057.txt.gz
Snowfall_Accumulation
0.0 0.0 0.0 0.0 0.0 0.0 0.0 0.0 0.2 0.0 0.0 0.0 0.0 0.0 0.0 0.0 0.0 0.0 0.0 0.0 0.0 0.0 0.0 0.0 0.0 0.0 0.0 0.0 0.0 0.0 0.0 0.0 0.0 0.0 0.0 0.0 0.0 0.0 0.0 0.0 0.0 0.0 0.0 0.0
0.0 0.0 0.0 0.0 0.0 0.0 0.0 0.0 0.0 0.0 0.0 0.0 0.0 0.0 0.0 0.0 0.0 0.0 0.0 0.0 0.0 0.0 0.0 0.0 0.0 0.0 0.0 0.0 0.0 0.0 0.0 0.0 0.0 0.0 0.0 0.0 0.0 0.0 0.0 0.0 0.0 0.0 0.0 0.0
0.1 0.0 0.0 0.9 0.0 0.0 0.0 0.0 0.0 0.0 0.0 0.0 0.0 0.0 0.0 0.0 0.0 0.0 0.0 0.0 0.0 0.0 0.0 0.0 0.0 0.0 0.0 0.0 0.0 0.0 0.0 0.0 0.0 0.0 0.0 0.0 0.0 0.0 0.0 0.0 0.0 0.0 0.0 0.0
1.3 0.7 2.5 0.0 0.0 0.0 0.0 0.0 0.0 0.0 0.0 0.0 0.0 0.0 0.0 0.0 0.0 0.0 0.0 0.0 0.0 0.0 0.0 0.0 0.0 0.0 0.0 0.0 0.0 0.0 0.0 0.0 0.0 0.0 0.0 0.0 0.0 0.0 0.0 0.0 0.0 0.0 0.0 0.0
4.1 0.5 0.0 0.0 0.0 0.0 0.0 0.0 0.0 0.0 0.0 0.0 0.0 0.0 0.0 0.0 0.0 0.0 0.0 0.0 0.0 0.0 0.0 0.0 0.0 0.0 0.0 0.0 0.0 0.0 0.0 0.0 0.0 0.0 0.0 0.0 0.0 0.0 0.0 0.0 0.0 0.0 0.0 0.0
1.5 1.7 4.0 0.0 0.0 0.0 0.0 0.2 0.0 0.0 0.0 0.0 0.0 0.2 0.0 0.0 0.0 0.0 0.0 0.0 0.0 0.0 0.0 0.0 0.0 0.0 0.0 0.0 0.0 0.0 0.0 0.0 0.0 0.0 0.0 0.0 0.0 0.0 0.0 0.0 0.0 0.1 0.0 0.0
1.4 3.5 0.6 0.0 0.0 0.0 0.9 0.1 0.0 0.0 0.0 0.0 0.0 0.0 0.0 0.0 0.0 0.0 0.0 0.0 0.0 0.0 0.0 0.0 0.0 0.0 0.0 0.0 0.0 0.0 0.0 0.0 0.0 0.0 0.0 0.0 0.0 0.0 0.0 0.0 0.0 0.2 0.4 0.1
2.5 5.0 4.4 0.0 0.0 0.1 0.1 0.0 0.0 0.0 0.0 0.0 0.0 0.0 0.0 0.0 0.0 0.0 0.0 0.0 0.0 0.0 0.0 0.0 0.0 0.0 0.0 0.0 0.0 0.0 0.0 0.0 0.0 0.0 0.0 0.0 0.0 0.0 0.0 0.0 0.1 1.1 2.2 0.7
0.1 0.5 0.0 0.0 0.0 0.0 0.0 0.0 0.0 0.0 0.0 0.0 0.0 0.0 0.0 0.0 0.0 0.0 0.0 0.0 0.0 0.0 0.0 0.0 0.0 0.0 0.0 0.0 0.0 0.0 0.0 0.0 0.0 0.0 0.0 0.0 0.0 0.0 0.2 0.0 0.5 0.8 2.1 1.7
0.0 0.0 0.0 0.0 0.0 0.0 0.0 0.0 0.0 0.0 0.0 0.0 0.0 0.0 0.0 0.0 0.0 0.0 0.0 0.0 0.0 0.0 0.0 0.0 0.0 0.0 0.0 0.0 0.0 0.0 0.0 0.0 0.0 0.0 0.0 0.0 0.0 0.0 0.3 0.5 0.9 0.9 1.7 2.2
0.0 0.0 0.0 0.0 0.0 0.0 0.0 0.0 0.0 0.0 0.0 0.0 0.0 0.0 0.0 0.0 0.0 0.0 0.0 0.0 0.0 0.0 0.0 0.0 0.0 0.0 0.0 0.0 0.0 0.0 0.0 0.0 0.0 0.1 0.1 0.1 0.0 0.2 0.4 0.1 0.9 1.7 1.1 1.8
0.3 0.0 0.0 0.0 0.0 0.0 0.0 0.0 0.0 0.0 0.0 0.0 0.0 0.0 0.0 0.0 0.0 0.0 0.0 0.0 0.0 0.0 0.0 0.0 0.0 0.0 0.0 0.0 0.0 0.0 0.0 0.0 0.4 0.5 0.6 0.4 0.4 0.5 nan nan nan nan nan 3.5
0.0 0.0 0.0 0.0 0.0 0.0 0.0 0.0 0.0 0.0 0.0 0.0 0.0 0.0 0.0 0.0 0.0 nan 0.0 0.0 0.0 0.0 0.0 0.0 0.0 0.0 0.0 0.0 0.0 0.1 0.1 0.1 0.6 0.6 0.6 0.7 0.8 0.9 1.5 1.2 nan nan nan nan
0.0 0.0 0.0 0.0 0.0 0.0 0.0 0.0 0.0 0.0 0.0 0.0 0.0 0.0 0.0 0.0 0.0 0.0 0.0 0.0 0.0 0.0 0.0 0.0 0.0 0.0 0.0 0.0 0.0 0.2 0.1 0.0 0.8 0.8 0.8 1.1 1.7 1.8 1.8 2.8 5.3 3.2 nan nan
0.0 0.0 0.0 0.0 0.0 0.0 0.0 0.0 0.0 0.0 0.0 0.0 0.0 0.0 0.0 0.0 0.0 0.0 0.0 0.0 0.0 0.0 0.0 0.0 0.0 0.0 0.0 0.0 0.0 0.0 0.2 0.7 1.4 2.2 2.5 2.1 2.3 2.5 2.3 3.0 3.4 2.6 1.9 2.2
0.0 0.0 0.0 0.0 0.0 0.0 0.0 0.0 0.0 0.0 0.0 0.0 0.0 0.0 0.0 0.0 0.0 0.0 0.0 0.0 0.2 0.2 0.0 3.2 0.5 0.0 0.0 0.0 0.0 0.0 0.2 0.0 0.8 1.7 2.0 2.2 1.9 2.8 2.7 3.0 3.1 3.4 3.0 2.8
0.0 0.0 0.0 0.0 0.0 0.0 0.0 0.0 0.0 0.0 0.0 0.0 0.0 0.1 0.1 0.1 0.1 0.1 0.0 0.1 1.2 1.5 0.9 0.5 0.2 0.0 0.0 0.0 0.0 0.3 0.4 0.6 0.1 1.1 1.5 2.0 2.9 3.6 3.3 4.2 4.1 3.6 6.6 9.9
0.0 0.0 0.0 0.0 0.0 0.0 0.0 0.0 0.0 0.0 0.0 0.0 0.6 3.4 4.5 4.2 0.4 0.4 0.4 0.5 1.7 1.9 0.2 0.2 0.2 0.0 0.1 0.0 0.0 0.3 1.0 1.4 1.9 3.0 2.9 4.5 3.2 3.0 4.1 3.7 3.8 4.3 5.3 4.5
0.0 0.0 0.0 0.0 0.0 0.0 0.0 0.0 0.1 0.0 2.0 1.6 4.1 4.2 2.8 3.2 0.3 0.2 0.3 4.5 5.4 0.9 0.1 0.1 0.0 0.1 0.0 0.0 0.1 1.1 2.2 4.7 3.2 2.2 2.9 5.9 6.3 3.0 5.3 6.6 5.7 7.5 4.7 5.6
0.0 0.0 0.0 0.0 0.0 0.0 0.1 0.1 0.7 0.1 0.1 0.5 4.6 5.4 2.3 4.0 4.3 5.4 2.4 1.3 0.2 0.6 0.1 0.1 0.1 0.1 0.2 0.2 1.4 1.3 3.0 5.8 3.3 5.3 7.0 4.4 9.8 13.1 8.9 6.8 6.0 8.5 15.7 13.3
0.0 0.0 0.1 0.1 0.1 0.7 2.2 2.7 2.0 0.1 0.2 4.0 6.3 7.5 6.9 3.5 4.4 6.5 3.5 1.0 0.1 0.4 0.1 0.1 0.4 0.5 0.3 0.5 0.6 3.6 6.7 9.4 10.0 7.3 7.0 12.6 15.4 11.4 12.8 15.0 13.7 15.8 18.9 15.4
0.0 0.5 1.8 1.1 0.3 0.1 0.4 0.1 0.1 2.7 2.7 5.7 9.7 11.3 9.1 2.2 3.6 3.3 5.1 1.1 0.6 1.9 1.0 1.2 0.8 3.0 2.3 5.2 2.5 8.6 4.9 5.9 7.9 8.4 9.0 12.3 13.0 18.8 19.3 16.5 16.7 18.1 18.1 19.4
0.0 0.0 0.2 1.1 1.2 0.0 0.1 0.7 3.8 3.7 6.5 5.7 7.3 4.6 3.2 1.2 1.0 2.8 3.3 0.1 0.8 3.5 1.3 2.9 4.6 4.7 5.7 11.4 10.2 11.7 11.6 11.8 12.7 11.9 12.3 17.4 15.8 25.0 14.3 13.9 15.4 16.5 21.9 15.3
0.0 0.0 0.0 0.1 0.3 0.3 0.7 0.0 0.1 0.2 4.8 2.7 3.8 5.6 2.5 4.9 7.4 1.2 0.9 5.5 5.8 13.5 11.8 6.9 9.1 6.0 6.9 13.3 12.7 14.4 13.9 15.8 16.9 19.5 9.9 9.2 25.1 18.1 14.1 20.4 13.4 16.1 18.7 15.6
0.1 0.0 0.1 0.8 0.2 0.4 0.0 0.0 0.2 0.2 0.4 0.6 0.7 0.3 0.7 1.3 7.0 2.9 5.1 4.9 6.3 5.0 7.5 6.7 6.6 7.3 17.5 18.7 16.8 16.8 16.8 15.1 17.1 22.3 17.1 22.4 20.3 27.8 22.2 17.3 21.3 21.4 23.3 20.4
0.0 0.3 0.2 0.0 0.2 0.3 0.3 0.6 1.1 1.2 1.7 4.8 3.9 9.0 9.4 4.3 4.0 3.7 5.3 6.2 4.6 6.3 5.9 13.2 18.6 19.4 18.9 14.0 15.7 15.8 11.9 8.9 14.4 14.8 17.9 16.8 16.7 14.0 18.5 16.1 20.3 24.3 31.6 36.1
0.4 0.1 0.6 0.5 0.4 0.6 1.0 1.2 3.4 3.7 4.2 7.7 6.8 9.9 3.9 6.7 9.0 6.6 8.1 12.3 12.1 13.7 13.9 15.7 14.1 10.5 9.1 14.8 13.1 12.1 12.2 12.1 10.6 10.6 18.9 24.7 23.8 31.1 29.0 27.8 28.9 29.7 28.2 27.6

GFSNGP_prec_sndepth_060.txt.gz
Snowfall_Accumulation
0.0 0.0 0.0 0.0 0.0 0.0 0.0 0.0 0.2 0.0 0.0 0.0 0.0 0.0 0.0 0.0 0.0 0.0 0.0 0.0 0.0 0.0 0.0 0.0 0.0 0.0 0.0 0.0 0.0 0.0 0.0 0.0 0.0 0.0 0.0 0.0 0.0 0.0 0.0 0.0 0.0 0.0 0.0 0.0
0.0 0.0 0.0 0.0 0.0 0.0 0.0 0.0 0.0 0.0 0.0 0.0 0.0 0.0 0.0 0.0 0.0 0.0 0.0 0.0 0.0 0.0 0.0 0.0 0.0 0.0 0.0 0.0 0.0 0.0 0.0 0.0 0.0 0.0 0.0 0.0 0.0 0.0 0.0 0.0 0.0 0.0 0.0 0.0
0.1 0.0 0.0 0.9 0.0 0.0 0.0 0.0 0.0 0.0 0.0 0.0 0.0 0.0 0.0 0.0 0.0 0.0 0.0 0.0 0.0 0.0 0.0 0.0 0.0 0.0 0.0 0.0 0.0 0.0 0.0 0.0 0.0 0.0 0.0 0.0 0.0 0.0 0.0 0.0 0.0 0.0 0.0 0.0
1.3 0.7 2.5 0.0 0.0 0.0 0.0 0.0 0.0 0.0 0.0 0.0 0.0 0.0 0.0 0.0 0.0 0.0 0.0 0.0 0.0 0.0 0.0 0.0 0.0 0.0 0.0 0.0 0.0 0.0 0.0 0.0 0.0 0.0 0.0 0.0 0.0 0.0 0.0 0.0 0.0 0.0 0.0 0.0
4.1 0.5 0.0 0.0 0.0 0.0 0.0 0.0 0.0 0.0 0.0 0.0 0.0 0.0 0.0 0.0 0.0 0.0 0.0 0.0 0.0 0.0 0.0 0.0 0.0 0.0 0.0 0.0 0.0 0.0 0.0 0.0 0.0 0.0 0.0 0.0 0.0 0.0 0.0 0.0 0.0 0.0 0.0 0.0
1.5 1.7 4.0 0.0 0.0 0.0 0.0 0.2 0.0 0.0 0.0 0.0 0.0 0.2 0.0 0.0 0.0 0.0 0.0 0.0 0.0 0.0 0.0 0.0 0.0 0.0 0.0 0.0 0.0 0.0 0.0 0.0 0.0 0.0 0.0 0.0 0.0 0.0 0.0 0.0 0.0 0.1 0.0 0.0
1.4 3.5 0.6 0.0 0.0 0.0 0.9 0.1 0.0 0.0 0.0 0.0 0.0 0.0 0.0 0.0 0.0 0.0 0.0 0.0 0.0 0.0 0.0 0.0 0.0 0.0 0.0 0.0 0.0 0.0 0.0 0.0 0.0 0.0 0.0 0.0 0.0 0.0 0.0 0.0 0.0 0.2 0.4 0.1
2.4 5.0 4.4 0.0 0.0 0.1 0.1 0.0 0.0 0.0 0.0 0.0 0.0 0.0 0.0 0.0 0.0 0.0 0.0 0.0 0.0 0.0 0.0 0.0 0.0 0.0 0.0 0.0 0.0 0.0 0.0 0.0 0.0 0.0 0.0 0.0 0.0 0.0 0.0 0.0 0.1 1.1 2.2 0.7
0.1 0.5 0.0 0.0 0.0 0.0 0.0 0.0 0.0 0.0 0.0 0.0 0.0 0.0 0.0 0.0 0.0 0.0 0.0 0.0 0.0 0.0 0.0 0.0 0.0 0.0 0.0 0.0 0.0 0.0 0.0 0.0 0.0 0.0 0.0 0.0 0.0 0.0 0.2 0.0 0.5 0.8 2.1 1.7
0.0 0.0 0.0 0.0 0.0 0.0 0.0 0.0 0.0 0.0 0.0 0.0 0.0 0.0 0.0 0.0 0.0 0.0 0.0 0.0 0.0 0.0 0.0 0.0 0.0 0.0 0.0 0.0 0.0 0.0 0.0 0.0 0.0 0.0 0.0 0.0 0.0 0.0 0.3 0.5 0.9 0.9 1.7 2.2
0.0 0.0 0.0 0.0 0.0 0.0 0.0 0.0 0.0 0.0 0.0 0.0 0.0 0.0 0.0 0.0 0.0 0.0 0.0 0.0 0.0 0.0 0.0 0.0 0.0 0.0 0.0 0.0 0.0 0.0 0.0 0.0 0.0 0.1 0.1 0.1 0.0 0.2 0.4 0.1 0.9 1.7 1.1 1.8
0.3 0.0 0.0 0.0 0.0 0.0 0.0 0.0 0.0 0.0 0.0 0.0 0.0 0.0 0.0 0.0 0.0 0.0 0.0 0.0 0.0 0.0 0.0 0.0 0.0 0.0 0.0 0.0 0.0 0.0 0.0 0.0 0.4 0.5 0.6 0.4 0.4 0.5 nan nan nan nan nan 3.5
0.0 0.0 0.0 0.0 0.0 0.0 0.0 0.0 0.0 0.0 0.0 0.0 0.0 0.0 0.0 0.0 0.0 nan 0.0 0.0 0.0 0.0 0.0 0.0 0.0 0.0 0.0 0.0 0.0 0.1 0.1 0.1 0.6 0.6 0.6 0.7 0.8 0.9 1.5 1.1 nan nan nan nan
0.0 0.0 0.0 0.0 0.0 0.0 0.0 0.0 0.0 0.0 0.0 0.0 0.0 0.0 0.0 0.0 0.0 0.0 0.0 0.0 0.0 0.0 0.0 0.0 0.0 0.0 0.0 0.0 0.0 0.2 0.1 0.0 0.8 0.8 0.8 1.1 1.7 1.8 1.8 2.9 5.4 3.4 nan nan
0.0 0.0 0.0 0.0 0.0 0.0 0.0 0.0 0.0 0.0 0.0 0.0 0.0 0.0 0.0 0.0 0.0 0.0 0.0 0.0 0.0 0.0 0.0 0.0 0.0 0.0 0.0 0.0 0.0 0.0 0.2 0.7 1.4 2.2 2.5 2.1 2.2 2.5 2.4 3.1 3.7 3.0 2.3 2.3
0.0 0.0 0.0 0.0 0.0 0.0 0.0 0.0 0.0 0.0 0.0 0.0 0.0 0.0 0.0 0.0 0.0 0.0 0.0 0.0 0.2 0.2 0.0 3.2 0.5 0.0 0.0 0.0 0.0 0.0 0.2 0.0 0.8 1.6 2.0 2.2 1.9 2.9 3.1 3.6 3.5 3.9 3.4 2.8
0.0 0.0 0.0 0.0 0.0 0.0 0.0 0.0 0.0 0.0 0.0 0.0 0.0 0.1 0.1 0.1 0.1 0.1 0.0 0.1 1.2 1.5 0.9 0.5 0.2 0.0 0.0 0.0 0.0 0.3 0.4 0.6 0.1 1.1 1.5 2.0 3.0 3.6 3.7 4.7 4.5 3.7 6.6 9.9
0.0 0.0 0.0 0.0 0.0 0.0 0.0 0.0 0.0 0.0 0.0 0.0 0.6 3.5 4.5 4.2 0.4 0.4 0.4 0.5 1.7 1.9 0.2 0.2 0.2 0.0 0.1 0.0 0.0 0.3 1.0 1.4 1.9 3.1 2.9 4.6 3.3 3.2 4.5 4.2 4.3 4.6 5.5 4.6
0.0 0.0 0.0 0.0 0.0 0.0 0.0 0.0 0.1 0.0 2.0 1.6 4.1 4.2 2.8 3.2 0.3 0.2 0.3 4.5 5.4 0.8 0.1 0.1 0.0 0.1 0.0 0.0 0.1 1.1 2.3 4.7 3.2 2.3 3.0 6.2 6.4 3.3 7.2 7.7 6.3 8.0 5.1 5.7
0.0 0.0 0.0 0.0 0.0 0.0 0.1 0.1 0.7 0.1 0.1 0.5 4.6 5.4 2.3 4.0 4.3 5.4 2.4 1.3 0.3 0.6 0.1 0.1 0.1 0.1 0.2 0.2 1.4 1.3 3.0 5.9 3.3 5.4 7.3 4.6 10.2 13.4 9.2 6.9 6.2 8.6 15.7 13.4
0.0 0.0 0.1 0.1 0.1 0.7 2.2 2.7 2.0 0.1 0.1 4.0 6.3 7.5 6.9 3.5 4.4 6.5 3.5 1.0 0.1 0.4 0.1 0.1 0.4 0.5 0.3 0.5 0.6 3.6 6.7 9.4 10.0 7.4 7.1 12.6 15.4 11.4 12.8 15.0 13.8 15.9 19.1 15.5
0.0 0.5 1.8 1.0 0.3 0.1 0.4 0.1 0.1 2.7 2.7 5.7 9.7 11.3 9.1 2.2 3.6 3.3 5.1 1.1 0.6 1.9 1.0 1.2 0.8 3.0 2.3 5.2 2.5 8.6 4.9 5.9 7.9 8.4 9.1 12.3 13.0 18.9 19.4 16.5 16.8 18.3 18.3 19.5
0.0 0.0 0.2 1.1 1.2 0.0 0.1 0.7 3.8 3.7 6.5 5.7 7.3 4.6 3.2 1.2 1.0 2.8 3.3 0.1 0.8 3.5 1.3 2.9 4.6 4.7 5.7 11.4 10.2 11.7 11.6 11.9 12.7 11.9 12.3 17.5 15.8 25.1 14.3 14.0 15.5 16.7 22.0 15.4
0.0 0.0 0.0 0.1 0.3 0.3 0.7 0.0 0.1 0.2 4.8 2.6 3.8 5.6 2.5 4.9 7.4 1.2 0.9 5.5 5.8 13.5 11.8 6.9 9.1 6.0 6.9 13.3 12.7 14.4 13.9 15.8 16.9 19.5 9.9 9.2 25.1 18.2 14.2 20.4 13.5 16.1 18.8 15.6
0.1 0.0 0.1 0.8 0.2 0.4 0.0 0.0 0.1 0.2 0.4 0.6 0.7 0.3 0.7 1.3 7.0 2.9 5.1 4.9 6.3 5.0 7.5 6.7 6.6 7.3 17.5 18.7 16.8 16.8 16.8 15.1 17.1 22.3 17.1 22.4 20.3 27.8 22.2 17.3 21.3 21.4 23.3 20.4
0.0 0.3 0.2 0.0 0.2 0.3 0.3 0.6 1.1 1.2 1.7 4.8 3.9 9.0 9.4 4.3 4.0 3.7 5.3 6.2 4.6 6.3 5.9 13.2 18.6 19.4 18.9 14.0 15.7 15.8 11.9 8.8 14.4 14.8 17.9 16.8 16.7 14.0 18.5 16.1 20.3 24.3 31.5 36.0
0.4 0.1 0.6 0.5 0.4 0.6 1.0 1.2 3.4 3.7 4.2 7.7 6.8 9.9 3.9 6.7 9.1 6.6 8.1 12.3 12.1 13.8 13.9 15.7 14.1 10.5 9.1 14.9 13.1 12.1 12.2 12.1 10.6 10.6 18.9 24.7 23.7 31.0 29.0 27.7 28.9 29.6 28.1 27.6